Wetterdaten: aktuell Mittwoch, 18.09.2019 07:39
Datum Zeit Temp. I. Temp. 2m Feuchte I. Luftf.2m Luftdruck Regen Wind Richtung Richtung Taupunkt Windchill Windben Empfang
18.09.2019 07:39 23,2 C 10,6 C 54 % 83 % 1023,7 hPa 0,0 l/m 0,0 km/h (0 Bft) N 0 7,8 C 10,6 C 0,0 km/h (0 Bft) 100,00 %
18.09.2019 07:38 23,2 C 10,6 C 55 % 83 % 1023,7 hPa 0,0 l/m 0,0 km/h (0 Bft) W-SW 247 7,8 C 10,6 C 1,6 km/h (1 Bft) 100,00 %
18.09.2019 07:37 23,2 C 10,6 C 55 % 83 % 1023,7 hPa 0,0 l/m 0,0 km/h (0 Bft) W-SW 247 7,8 C 10,6 C 1,6 km/h (1 Bft) 100,00 %
18.09.2019 07:36 23,2 C 10,6 C 55 % 83 % 1023,6 hPa 0,0 l/m 0,0 km/h (0 Bft) N 0 7,8 C 10,6 C 0,0 km/h (0 Bft) 100,00 %
18.09.2019 07:35 23,2 C 10,6 C 55 % 83 % 1023,6 hPa 0,0 l/m 0,0 km/h (0 Bft) SW 225 7,8 C 10,6 C 3,2 km/h (1 Bft) 100,00 %
18.09.2019 07:34 23,2 C 10,6 C 56 % 83 % 1023,6 hPa 0,0 l/m 0,0 km/h (0 Bft) W-SW 247 7,8 C 10,6 C 1,6 km/h (1 Bft) 100,00 %
18.09.2019 07:33 23,2 C 10,6 C 55 % 83 % 1023,6 hPa 0,0 l/m 0,0 km/h (0 Bft) W-SW 247 7,8 C 10,6 C 1,6 km/h (1 Bft) 100,00 %
18.09.2019 07:32 23,2 C 10,6 C 56 % 83 % 1023,6 hPa 0,0 l/m 1,6 km/h (1 Bft) SW 225 7,8 C 10,6 C 1,6 km/h (1 Bft) 100,00 %
18.09.2019 07:31 23,2 C 10,5 C 56 % 83 % 1023,6 hPa 0,0 l/m 0,0 km/h (0 Bft) W-SW 247 7,7 C 10,5 C 1,6 km/h (1 Bft) 95,65 %
18.09.2019 07:30 23,2 C 10,5 C 56 % 83 % 1023,6 hPa 0,0 l/m 0,0 km/h (0 Bft) W-SW 247 7,7 C 10,5 C 1,6 km/h (1 Bft) 100,00 %
18.09.2019 07:29 23,3 C 10,5 C 56 % 83 % 1023,6 hPa 0,0 l/m 1,6 km/h (1 Bft) W-SW 247 7,7 C 10,5 C 3,2 km/h (1 Bft) 95,65 %
18.09.2019 07:28 23,2 C 10,4 C 56 % 83 % 1023,5 hPa 0,0 l/m 1,6 km/h (1 Bft) SW 225 7,6 C 10,4 C 3,2 km/h (1 Bft) 100,00 %
18.09.2019 07:27 23,2 C 10,4 C 57 % 84 % 1023,6 hPa 0,0 l/m 0,0 km/h (0 Bft) W-SW 247 7,8 C 10,4 C 1,6 km/h (1 Bft) 100,00 %
18.09.2019 07:26 23,3 C 10,4 C 57 % 84 % 1023,6 hPa 0,0 l/m 1,6 km/h (1 Bft) W-SW 247 7,8 C 10,4 C 1,6 km/h (1 Bft) 100,00 %
18.09.2019 07:25 23,3 C 10,4 C 57 % 84 % 1023,5 hPa 0,0 l/m 0,0 km/h (0 Bft) W-SW 247 7,8 C 10,4 C 1,6 km/h (1 Bft) 100,00 %
18.09.2019 07:24 23,3 C 10,4 C 58 % 84 % 1023,5 hPa 0,0 l/m 0,0 km/h (0 Bft) W-SW 247 7,8 C 10,4 C 1,6 km/h (1 Bft) 100,00 %
18.09.2019 07:23 23,3 C 10,4 C 58 % 84 % 1023,5 hPa 0,0 l/m 0,0 km/h (0 Bft) N 0 7,8 C 10,4 C 0,0 km/h (0 Bft) 100,00 %
18.09.2019 07:22 23,3 C 10,4 C 58 % 84 % 1023,5 hPa 0,0 l/m 0,0 km/h (0 Bft) W-SW 247 7,8 C 10,4 C 1,6 km/h (1 Bft) 100,00 %
18.09.2019 07:21 23,3 C 10,4 C 58 % 84 % 1023,5 hPa 0,0 l/m 0,0 km/h (0 Bft) W-SW 247 7,8 C 10,4 C 1,6 km/h (1 Bft) 95,65 %
18.09.2019 07:20 23,3 C 10,4 C 59 % 84 % 1023,5 hPa 0,0 l/m 1,6 km/h (1 Bft) W-SW 247 7,8 C 10,4 C 1,6 km/h (1 Bft) 100,00 %
18.09.2019 07:19 23,3 C 10,4 C 59 % 85 % 1023,5 hPa 0,0 l/m 0,0 km/h (0 Bft) SW 225 8,0 C 10,4 C 1,6 km/h (1 Bft) 100,00 %
18.09.2019 07:18 23,3 C 10,3 C 59 % 85 % 1023,5 hPa 0,0 l/m 1,6 km/h (1 Bft) W-SW 247 7,9 C 10,3 C 3,2 km/h (1 Bft) 100,00 %
18.09.2019 07:17 23,3 C 10,3 C 59 % 85 % 1023,5 hPa 0,0 l/m 0,0 km/h (0 Bft) W 270 7,9 C 10,3 C 1,6 km/h (1 Bft) 100,00 %
18.09.2019 07:16 23,3 C 10,3 C 59 % 85 % 1023,5 hPa 0,0 l/m 1,6 km/h (1 Bft) W 270 7,9 C 10,3 C 3,2 km/h (1 Bft) 95,65 %
18.09.2019 07:15 23,3 C 10,4 C 59 % 85 % 1023,5 hPa 0,0 l/m 0,0 km/h (0 Bft) N 0 8,0 C 10,4 C 0,0 km/h (0 Bft) 100,00 %
18.09.2019 07:14 23,3 C 10,4 C 59 % 85 % 1023,4 hPa 0,0 l/m 0,0 km/h (0 Bft) W-SW 247 8,0 C 10,4 C 1,6 km/h (1 Bft) 100,00 %
18.09.2019 07:13 23,3 C 10,4 C 59 % 85 % 1023,4 hPa 0,0 l/m 0,0 km/h (0 Bft) W-SW 247 8,0 C 10,4 C 1,6 km/h (1 Bft) 100,00 %
18.09.2019 07:12 23,4 C 10,3 C 59 % 85 % 1023,5 hPa 0,0 l/m 1,6 km/h (1 Bft) W-SW 247 7,9 C 10,3 C 3,2 km/h (1 Bft) 95,65 %
18.09.2019 07:11 23,4 C 10,4 C 59 % 85 % 1023,5 hPa 0,0 l/m 0,0 km/h (0 Bft) W-SW 247 8,0 C 10,4 C 1,6 km/h (1 Bft) 100,00 %
18.09.2019 07:10 23,3 C 10,4 C 60 % 85 % 1023,5 hPa 0,0 l/m 0,0 km/h (0 Bft) W-SW 247 8,0 C 10,4 C 1,6 km/h (1 Bft) 100,00 %
18.09.2019 07:09 23,4 C 10,4 C 60 % 85 % 1023,4 hPa 0,0 l/m 1,6 km/h (1 Bft) W-SW 247 8,0 C 10,4 C 3,2 km/h (1 Bft) 95,65 %
18.09.2019 07:08 23,4 C 10,4 C 60 % 85 % 1023,5 hPa 0,0 l/m 0,0 km/h (0 Bft) W-SW 247 8,0 C 10,4 C 1,6 km/h (1 Bft) 100,00 %
18.09.2019 07:07 23,4 C 10,4 C 60 % 85 % 1023,5 hPa 0,0 l/m 0,0 km/h (0 Bft) W-SW 247 8,0 C 10,4 C 1,6 km/h (1 Bft) 100,00 %
18.09.2019 07:06 23,4 C 10,4 C 60 % 85 % 1023,4 hPa 0,0 l/m 0,0 km/h (0 Bft) W-SW 247 8,0 C 10,4 C 1,6 km/h (1 Bft) 100,00 %
18.09.2019 07:05 23,4 C 10,4 C 60 % 85 % 1023,5 hPa 0,0 l/m 1,6 km/h (1 Bft) W-SW 247 8,0 C 10,4 C 1,6 km/h (1 Bft) 95,65 %
18.09.2019 07:04 23,4 C 10,4 C 60 % 85 % 1023,4 hPa 0,0 l/m 0,0 km/h (0 Bft) W-SW 247 8,0 C 10,4 C 1,6 km/h (1 Bft) 95,65 %
18.09.2019 07:03 23,4 C 10,4 C 61 % 85 % 1023,4 hPa 0,0 l/m 0,0 km/h (0 Bft) W-SW 247 8,0 C 10,4 C 1,6 km/h (1 Bft) 100,00 %
18.09.2019 07:02 23,4 C 10,4 C 60 % 85 % 1023,4 hPa 0,0 l/m 0,0 km/h (0 Bft) W-SW 247 8,0 C 10,4 C 1,6 km/h (1 Bft) 100,00 %
18.09.2019 07:01 23,4 C 10,4 C 61 % 84 % 1023,4 hPa 0,0 l/m 0,0 km/h (0 Bft) W-SW 247 7,8 C 10,4 C 1,6 km/h (1 Bft) 100,00 %
18.09.2019 07:00 23,4 C 10,5 C 61 % 84 % 1023,4 hPa 0,0 l/m 0,0 km/h (0 Bft) W-SW 247 7,9 C 10,5 C 1,6 km/h (1 Bft) 100,00 %
18.09.2019 06:59 23,4 C 10,5 C 61 % 84 % 1023,4 hPa 0,0 l/m 0,0 km/h (0 Bft) W-SW 247 7,9 C 10,5 C 1,6 km/h (1 Bft) 95,65 %
18.09.2019 06:58 23,4 C 10,5 C 61 % 84 % 1023,4 hPa 0,0 l/m 0,0 km/h (0 Bft) N 0 7,9 C 10,5 C 0,0 km/h (0 Bft) 86,96 %
18.09.2019 06:57 23,4 C 10,5 C 61 % 84 % 1023,4 hPa 0,0 l/m 0,0 km/h (0 Bft) W-SW 247 7,9 C 10,5 C 1,6 km/h (1 Bft) 65,22 %
18.09.2019 06:56 23,4 C 10,6 C 61 % 84 % 1023,3 hPa 0,0 l/m 0,0 km/h (0 Bft) W-SW 247 8,0 C 10,6 C 1,6 km/h (1 Bft) 47,83 %
18.09.2019 06:55 23,4 C 10,6 C 61 % 84 % 1023,3 hPa 0,0 l/m 0,0 km/h (0 Bft) N 0 8,0 C 10,6 C 0,0 km/h (0 Bft) 69,57 %
18.09.2019 06:54 23,4 C 10,6 C 61 % 83 % 1023,3 hPa 0,0 l/m 0,0 km/h (0 Bft) W-SW 247 7,8 C 10,6 C 1,6 km/h (1 Bft) 60,87 %
18.09.2019 06:53 23,4 C 10,6 C 61 % 83 % 1023,3 hPa 0,0 l/m 0,0 km/h (0 Bft) N 0 7,8 C 10,6 C 0,0 km/h (0 Bft) 78,26 %
18.09.2019 06:52 23,4 C 10,6 C 61 % 83 % 1023,4 hPa 0,0 l/m 0,0 km/h (0 Bft) W-SW 247 7,8 C 10,6 C 1,6 km/h (1 Bft) 60,87 %
18.09.2019 06:51 23,4 C 10,6 C 62 % 82 % 1023,4 hPa 0,0 l/m 0,0 km/h (0 Bft) W-SW 247 7,7 C 10,6 C 1,6 km/h (1 Bft) 60,87 %
18.09.2019 06:50 23,4 C 10,6 C 62 % 82 % 1023,3 hPa 0,0 l/m 0,0 km/h (0 Bft) SW 225 7,7 C 10,6 C 1,6 km/h (1 Bft) 65,22 %
18.09.2019 06:49 23,4 C 10,6 C 62 % 82 % 1023,3 hPa 0,0 l/m 1,6 km/h (1 Bft) SW 225 7,7 C 10,6 C 3,2 km/h (1 Bft) 86,96 %
18.09.2019 06:48 23,4 C 10,6 C 62 % 82 % 1023,3 hPa 0,0 l/m 0,0 km/h (0 Bft) N 0 7,7 C 10,6 C 0,0 km/h (0 Bft) 65,22 %
18.09.2019 06:47 23,4 C 10,6 C 62 % 82 % 1023,3 hPa 0,0 l/m 0,0 km/h (0 Bft) SW 225 7,7 C 10,6 C 1,6 km/h (1 Bft) 78,26 %
18.09.2019 06:46 23,4 C 10,6 C 63 % 82 % 1023,2 hPa 0,0 l/m 0,0 km/h (0 Bft) SW 225 7,7 C 10,6 C 1,6 km/h (1 Bft) 65,22 %
18.09.2019 06:45 23,5 C 10,6 C 63 % 82 % 1023,3 hPa 0,0 l/m 1,6 km/h (1 Bft) SW 225 7,7 C 10,6 C 1,6 km/h (1 Bft) 52,17 %
18.09.2019 06:44 23,4 C 10,6 C 63 % 82 % 1023,3 hPa 0,0 l/m 1,6 km/h (1 Bft) SW 225 7,7 C 10,6 C 3,2 km/h (1 Bft) 78,26 %
18.09.2019 06:43 23,4 C 10,6 C 63 % 82 % 1023,3 hPa 0,0 l/m 0,0 km/h (0 Bft) SW 225 7,7 C 10,6 C 1,6 km/h (1 Bft) 60,87 %
18.09.2019 06:42 23,4 C 10,6 C 63 % 82 % 1023,3 hPa 0,0 l/m 0,0 km/h (0 Bft) W-SW 247 7,7 C 10,6 C 1,6 km/h (1 Bft) 56,52 %
18.09.2019 06:41 23,5 C 10,6 C 64 % 82 % 1023,3 hPa 0,0 l/m 0,0 km/h (0 Bft) W-SW 247 7,7 C 10,6 C 1,6 km/h (1 Bft) 60,87 %
18.09.2019 06:40 23,4 C 10,6 C 64 % 82 % 1023,3 hPa 0,0 l/m 0,0 km/h (0 Bft) W-SW 247 7,7 C 10,6 C 1,6 km/h (1 Bft) 65,22 %
18.09.2019 06:39 23,4 C 10,6 C 64 % 82 % 1023,2 hPa 0,0 l/m 0,0 km/h (0 Bft) N 0 7,7 C 10,6 C 0,0 km/h (0 Bft) 65,22 %
18.09.2019 06:38 23,4 C 10,6 C 64 % 82 % 1023,2 hPa 0,0 l/m 1,6 km/h (1 Bft) W-SW 247 7,7 C 10,6 C 1,6 km/h (1 Bft) 47,83 %
18.09.2019 06:37 23,4 C 10,5 C 64 % 82 % 1023,2 hPa 0,0 l/m 0,0 km/h (0 Bft) W 270 7,6 C 10,5 C 1,6 km/h (1 Bft) 47,83 %
18.09.2019 06:36 23,4 C 10,5 C 64 % 82 % 1023,2 hPa 0,0 l/m 0,0 km/h (0 Bft) W 270 7,6 C 10,5 C 1,6 km/h (1 Bft) 43,48 %
18.09.2019 06:35 23,4 C 10,5 C 64 % 82 % 1023,2 hPa 0,0 l/m 0,0 km/h (0 Bft) N 0 7,6 C 10,5 C 0,0 km/h (0 Bft) 43,48 %
18.09.2019 06:34 23,4 C 10,5 C 64 % 82 % 1023,2 hPa 0,0 l/m 0,0 km/h (0 Bft) N 0 7,6 C 10,5 C 0,0 km/h (0 Bft) 73,91 %
18.09.2019 06:33 23,4 C 10,5 C 64 % 82 % 1023,1 hPa 0,0 l/m 0,0 km/h (0 Bft) N 0 7,6 C 10,5 C 0,0 km/h (0 Bft) 78,26 %
18.09.2019 06:32 23,4 C 10,5 C 64 % 82 % 1023,2 hPa 0,0 l/m 0,0 km/h (0 Bft) W 270 7,6 C 10,5 C 1,6 km/h (1 Bft) 65,22 %
18.09.2019 06:31 23,4 C 10,6 C 64 % 82 % 1023,1 hPa 0,0 l/m 0,0 km/h (0 Bft) W 270 7,7 C 10,6 C 1,6 km/h (1 Bft) 95,65 %
18.09.2019 06:30 23,4 C 10,6 C 64 % 82 % 1023,2 hPa 0,0 l/m 0,0 km/h (0 Bft) W 270 7,7 C 10,6 C 1,6 km/h (1 Bft) 100,00 %
18.09.2019 06:29 23,4 C 10,6 C 64 % 82 % 1023,1 hPa 0,0 l/m 0,0 km/h (0 Bft) N 0 7,7 C 10,6 C 0,0 km/h (0 Bft) 91,30 %
18.09.2019 06:28 23,4 C 10,5 C 64 % 82 % 1023,2 hPa 0,0 l/m 0,0 km/h (0 Bft) N 0 7,6 C 10,5 C 0,0 km/h (0 Bft) 100,00 %
18.09.2019 06:27 23,4 C 10,5 C 64 % 82 % 1023,1 hPa 0,0 l/m 0,0 km/h (0 Bft) N 0 7,6 C 10,5 C 0,0 km/h (0 Bft) 100,00 %
18.09.2019 06:26 23,4 C 10,6 C 64 % 82 % 1023,1 hPa 0,0 l/m 0,0 km/h (0 Bft) N 0 7,7 C 10,6 C 0,0 km/h (0 Bft) 95,65 %
18.09.2019 06:25 23,4 C 10,5 C 64 % 82 % 1023,1 hPa 0,0 l/m 0,0 km/h (0 Bft) N 0 7,6 C 10,5 C 0,0 km/h (0 Bft) 100,00 %
18.09.2019 06:24 23,4 C 10,6 C 64 % 82 % 1023,1 hPa 0,0 l/m 0,0 km/h (0 Bft) N 0 7,7 C 10,6 C 0,0 km/h (0 Bft) 100,00 %
18.09.2019 06:23 23,4 C 10,5 C 63 % 82 % 1023,1 hPa 0,0 l/m 0,0 km/h (0 Bft) N 0 7,6 C 10,5 C 0,0 km/h (0 Bft) 91,30 %
18.09.2019 06:22 23,4 C 10,6 C 63 % 82 % 1023,1 hPa 0,0 l/m 0,0 km/h (0 Bft) W 270 7,7 C 10,6 C 1,6 km/h (1 Bft) 100,00 %
18.09.2019 06:21 23,4 C 10,5 C 63 % 82 % 1023,0 hPa 0,0 l/m 0,0 km/h (0 Bft) W 270 7,6 C 10,5 C 1,6 km/h (1 Bft) 86,96 %
18.09.2019 06:20 23,4 C 10,5 C 63 % 82 % 1023,0 hPa 0,0 l/m 0,0 km/h (0 Bft) SW 225 7,6 C 10,5 C 1,6 km/h (1 Bft) 95,65 %
18.09.2019 06:19 23,4 C 10,5 C 64 % 82 % 1023,1 hPa 0,0 l/m 0,0 km/h (0 Bft) N 0 7,6 C 10,5 C 0,0 km/h (0 Bft) 95,65 %
18.09.2019 06:18 23,4 C 10,5 C 63 % 82 % 1023,0 hPa 0,0 l/m 1,6 km/h (1 Bft) SW 225 7,6 C 10,5 C 3,2 km/h (1 Bft) 100,00 %
18.09.2019 06:17 23,4 C 10,6 C 63 % 82 % 1023,1 hPa 0,0 l/m 1,6 km/h (1 Bft) W 270 7,7 C 10,6 C 4,8 km/h (1 Bft) 100,00 %
18.09.2019 06:16 23,4 C 10,6 C 63 % 82 % 1023,0 hPa 0,0 l/m 1,6 km/h (1 Bft) W-SW 247 7,7 C 10,6 C 3,2 km/h (1 Bft) 100,00 %
18.09.2019 06:15 23,4 C 10,6 C 63 % 82 % 1023,0 hPa 0,0 l/m 0,0 km/h (0 Bft) W-SW 247 7,7 C 10,6 C 1,6 km/h (1 Bft) 100,00 %
18.09.2019 06:14 23,4 C 10,6 C 63 % 82 % 1023,0 hPa 0,0 l/m 1,6 km/h (1 Bft) W-SW 247 7,7 C 10,6 C 1,6 km/h (1 Bft) 100,00 %
18.09.2019 06:13 23,4 C 10,6 C 63 % 82 % 1023,0 hPa 0,0 l/m 0,0 km/h (0 Bft) W 270 7,7 C 10,6 C 1,6 km/h (1 Bft) 100,00 %
18.09.2019 06:12 23,4 C 10,6 C 63 % 82 % 1023,0 hPa 0,0 l/m 0,0 km/h (0 Bft) W 270 7,7 C 10,6 C 1,6 km/h (1 Bft) 100,00 %
18.09.2019 06:11 23,4 C 10,6 C 63 % 82 % 1023,0 hPa 0,0 l/m 0,0 km/h (0 Bft) W 270 7,7 C 10,6 C 1,6 km/h (1 Bft) 100,00 %
18.09.2019 06:10 23,4 C 10,6 C 63 % 82 % 1023,0 hPa 0,0 l/m 0,0 km/h (0 Bft) W 270 7,7 C 10,6 C 1,6 km/h (1 Bft) 100,00 %
18.09.2019 06:09 23,4 C 10,6 C 63 % 82 % 1023,0 hPa 0,0 l/m 1,6 km/h (1 Bft) W-NW 292 7,7 C 10,6 C 3,2 km/h (1 Bft) 100,00 %
18.09.2019 06:08 23,4 C 10,6 C 63 % 82 % 1022,9 hPa 0,0 l/m 1,6 km/h (1 Bft) W 270 7,7 C 10,6 C 3,2 km/h (1 Bft) 100,00 %
18.09.2019 06:07 23,4 C 10,6 C 63 % 82 % 1023,0 hPa 0,0 l/m 1,6 km/h (1 Bft) W 270 7,7 C 10,6 C 3,2 km/h (1 Bft) 100,00 %
18.09.2019 06:06 23,4 C 10,6 C 63 % 82 % 1023,0 hPa 0,0 l/m 0,0 km/h (0 Bft) W 270 7,7 C 10,6 C 1,6 km/h (1 Bft) 100,00 %
18.09.2019 06:05 23,4 C 10,6 C 63 % 82 % 1022,9 hPa 0,0 l/m 1,6 km/h (1 Bft) W 270 7,7 C 10,6 C 3,2 km/h (1 Bft) 100,00 %
18.09.2019 06:04 23,4 C 10,6 C 63 % 82 % 1022,9 hPa 0,0 l/m 1,6 km/h (1 Bft) W-NW 292 7,7 C 10,6 C 1,6 km/h (1 Bft) 100,00 %
18.09.2019 06:03 23,4 C 10,6 C 63 % 82 % 1022,9 hPa 0,0 l/m 0,0 km/h (0 Bft) W-NW 292 7,7 C 10,6 C 1,6 km/h (1 Bft) 100,00 %
18.09.2019 06:02 23,4 C 10,6 C 63 % 82 % 1022,9 hPa 0,0 l/m 0,0 km/h (0 Bft) W-NW 292 7,7 C 10,6 C 1,6 km/h (1 Bft) 100,00 %
18.09.2019 06:01 23,4 C 10,7 C 63 % 82 % 1022,9 hPa 0,0 l/m 1,6 km/h (1 Bft) W-NW 292 7,8 C 10,7 C 3,2 km/h (1 Bft) 100,00 %
18.09.2019 06:00 23,4 C 10,7 C 63 % 82 % 1022,9 hPa 0,0 l/m 0,0 km/h (0 Bft) W-NW 292 7,8 C 10,7 C 1,6 km/h (1 Bft) 100,00 %
18.09.2019 05:59 23,4 C 10,7 C 63 % 82 % 1022,9 hPa 0,0 l/m 0,0 km/h (0 Bft) W-NW 292 7,8 C 10,7 C 1,6 km/h (1 Bft) 100,00 %
18.09.2019 05:58 23,4 C 10,7 C 63 % 82 % 1022,8 hPa 0,0 l/m 0,0 km/h (0 Bft) W-NW 292 7,8 C 10,7 C 1,6 km/h (1 Bft) 100,00 %
18.09.2019 05:57 23,4 C 10,7 C 63 % 82 % 1022,8 hPa 0,0 l/m 1,6 km/h (1 Bft) NW 315 7,8 C 10,7 C 3,2 km/h (1 Bft) 100,00 %
18.09.2019 05:56 23,4 C 10,7 C 63 % 82 % 1022,8 hPa 0,0 l/m 0,0 km/h (0 Bft) W-NW 292 7,8 C 10,7 C 1,6 km/h (1 Bft) 100,00 %
18.09.2019 05:55 23,4 C 10,7 C 63 % 82 % 1022,8 hPa 0,0 l/m 0,0 km/h (0 Bft) W-NW 292 7,8 C 10,7 C 1,6 km/h (1 Bft) 100,00 %
18.09.2019 05:54 23,4 C 10,7 C 63 % 82 % 1022,8 hPa 0,0 l/m 0,0 km/h (0 Bft) W-NW 292 7,8 C 10,7 C 1,6 km/h (1 Bft) 100,00 %
18.09.2019 05:53 23,4 C 10,7 C 63 % 82 % 1022,8 hPa 0,0 l/m 1,6 km/h (1 Bft) W-NW 292 7,8 C 10,7 C 3,2 km/h (1 Bft) 100,00 %
18.09.2019 05:52 23,4 C 10,7 C 63 % 82 % 1022,8 hPa 0,0 l/m 0,0 km/h (0 Bft) W 270 7,8 C 10,7 C 1,6 km/h (1 Bft) 95,65 %
18.09.2019 05:51 23,4 C 10,7 C 63 % 82 % 1022,8 hPa 0,0 l/m 0,0 km/h (0 Bft) W 270 7,8 C 10,7 C 1,6 km/h (1 Bft) 100,00 %
18.09.2019 05:50 23,4 C 10,7 C 63 % 82 % 1022,8 hPa 0,0 l/m 0,0 km/h (0 Bft) N 0 7,8 C 10,7 C 0,0 km/h (0 Bft) 100,00 %
18.09.2019 05:49 23,4 C 10,7 C 63 % 82 % 1022,8 hPa 0,0 l/m 0,0 km/h (0 Bft) W 270 7,8 C 10,7 C 1,6 km/h (1 Bft) 100,00 %
18.09.2019 05:48 23,4 C 10,7 C 63 % 82 % 1022,8 hPa 0,0 l/m 0,0 km/h (0 Bft) W 270 7,8 C 10,7 C 1,6 km/h (1 Bft) 100,00 %
18.09.2019 05:47 23,4 C 10,7 C 63 % 82 % 1022,8 hPa 0,0 l/m 0,0 km/h (0 Bft) N 0 7,8 C 10,7 C 0,0 km/h (0 Bft) 100,00 %
18.09.2019 05:46 23,4 C 10,7 C 63 % 82 % 1022,7 hPa 0,0 l/m 0,0 km/h (0 Bft) W 270 7,8 C 10,7 C 1,6 km/h (1 Bft) 100,00 %
18.09.2019 05:45 23,4 C 10,7 C 63 % 82 % 1022,7 hPa 0,0 l/m 0,0 km/h (0 Bft) N 0 7,8 C 10,7 C 0,0 km/h (0 Bft) 95,65 %
18.09.2019 05:44 23,4 C 10,7 C 63 % 82 % 1022,7 hPa 0,0 l/m 0,0 km/h (0 Bft) W 270 7,8 C 10,7 C 1,6 km/h (1 Bft) 100,00 %
18.09.2019 05:43 23,4 C 10,7 C 63 % 82 % 1022,8 hPa 0,0 l/m 1,6 km/h (1 Bft) W 270 7,8 C 10,7 C 1,6 km/h (1 Bft) 100,00 %
18.09.2019 05:42 23,4 C 10,8 C 63 % 82 % 1022,7 hPa 0,0 l/m 0,0 km/h (0 Bft) W 270 7,9 C 10,8 C 1,6 km/h (1 Bft) 100,00 %
18.09.2019 05:41 23,4 C 10,8 C 63 % 81 % 1022,6 hPa 0,0 l/m 0,0 km/h (0 Bft) N 0 7,7 C 10,8 C 0,0 km/h (0 Bft) 100,00 %
18.09.2019 05:40 23,4 C 10,8 C 63 % 81 % 1022,7 hPa 0,0 l/m 0,0 km/h (0 Bft) W 270 7,7 C 10,8 C 1,6 km/h (1 Bft) 100,00 %
18.09.2019 05:39 23,4 C 10,8 C 63 % 81 % 1022,7 hPa 0,0 l/m 0,0 km/h (0 Bft) N 0 7,7 C 10,8 C 0,0 km/h (0 Bft) 100,00 %
18.09.2019 05:38 23,4 C 10,8 C 63 % 81 % 1022,7 hPa 0,0 l/m 0,0 km/h (0 Bft) N 0 7,7 C 10,8 C 0,0 km/h (0 Bft) 100,00 %
18.09.2019 05:37 23,4 C 10,8 C 63 % 81 % 1022,7 hPa 0,0 l/m 0,0 km/h (0 Bft) N 0 7,7 C 10,8 C 0,0 km/h (0 Bft) 100,00 %
18.09.2019 05:36 23,4 C 10,8 C 63 % 81 % 1022,6 hPa 0,0 l/m 0,0 km/h (0 Bft) W-SW 247 7,7 C 10,8 C 1,6 km/h (1 Bft) 100,00 %
18.09.2019 05:35 23,4 C 10,8 C 63 % 81 % 1022,7 hPa 0,0 l/m 0,0 km/h (0 Bft) W 270 7,7 C 10,8 C 1,6 km/h (1 Bft) 100,00 %
18.09.2019 05:34 23,4 C 10,9 C 63 % 81 % 1022,6 hPa 0,0 l/m 0,0 km/h (0 Bft) W 270 7,8 C 10,9 C 1,6 km/h (1 Bft) 100,00 %
18.09.2019 05:33 23,4 C 10,9 C 63 % 81 % 1022,6 hPa 0,0 l/m 0,0 km/h (0 Bft) W 270 7,8 C 10,9 C 1,6 km/h (1 Bft) 95,65 %
18.09.2019 05:32 23,4 C 10,9 C 63 % 81 % 1022,6 hPa 0,0 l/m 0,0 km/h (0 Bft) W 270 7,8 C 10,9 C 1,6 km/h (1 Bft) 100,00 %
18.09.2019 05:31 23,4 C 10,9 C 63 % 81 % 1022,6 hPa 0,0 l/m 0,0 km/h (0 Bft) N 0 7,8 C 10,9 C 0,0 km/h (0 Bft) 100,00 %
18.09.2019 05:30 23,4 C 10,9 C 63 % 81 % 1022,6 hPa 0,0 l/m 0,0 km/h (0 Bft) W 270 7,8 C 10,9 C 1,6 km/h (1 Bft) 100,00 %
18.09.2019 05:29 23,4 C 10,9 C 63 % 81 % 1022,6 hPa 0,0 l/m 0,0 km/h (0 Bft) W 270 7,8 C 10,9 C 1,6 km/h (1 Bft) 100,00 %
18.09.2019 05:28 23,4 C 10,9 C 63 % 81 % 1022,6 hPa 0,0 l/m 0,0 km/h (0 Bft) W-SW 247 7,8 C 10,9 C 3,2 km/h (1 Bft) 100,00 %
18.09.2019 05:27 23,4 C 10,9 C 63 % 81 % 1022,5 hPa 0,0 l/m 1,6 km/h (1 Bft) W 270 7,8 C 10,9 C 3,2 km/h (1 Bft) 100,00 %
18.09.2019 05:26 23,4 C 11,0 C 63 % 81 % 1022,6 hPa 0,0 l/m 0,0 km/h (0 Bft) W 270 7,9 C 11,0 C 1,6 km/h (1 Bft) 100,00 %
18.09.2019 05:25 23,4 C 11,0 C 63 % 81 % 1022,6 hPa 0,0 l/m 0,0 km/h (0 Bft) W-NW 292 7,9 C 11,0 C 1,6 km/h (1 Bft) 100,00 %
18.09.2019 05:24 23,4 C 11,0 C 63 % 81 % 1022,5 hPa 0,0 l/m 0,0 km/h (0 Bft) W-NW 292 7,9 C 11,0 C 1,6 km/h (1 Bft) 100,00 %
18.09.2019 05:23 23,4 C 11,0 C 63 % 81 % 1022,6 hPa 0,0 l/m 3,2 km/h (1 Bft) W-NW 292 7,9 C 11,0 C 4,8 km/h (1 Bft) 100,00 %
18.09.2019 05:22 23,4 C 11,0 C 63 % 80 % 1022,6 hPa 0,0 l/m 1,6 km/h (1 Bft) W 270 7,7 C 11,0 C 3,2 km/h (1 Bft) 100,00 %
18.09.2019 05:21 23,4 C 11,1 C 63 % 80 % 1022,5 hPa 0,0 l/m 0,0 km/h (0 Bft) W 270 7,8 C 11,1 C 1,6 km/h (1 Bft) 100,00 %
18.09.2019 05:20 23,4 C 11,1 C 63 % 80 % 1022,5 hPa 0,0 l/m 1,6 km/h (1 Bft) W 270 7,8 C 11,1 C 3,2 km/h (1 Bft) 100,00 %
18.09.2019 05:19 23,4 C 11,1 C 63 % 80 % 1022,4 hPa 0,0 l/m 0,0 km/h (0 Bft) W 270 7,8 C 11,1 C 1,6 km/h (1 Bft) 95,65 %
18.09.2019 05:18 23,4 C 11,2 C 63 % 80 % 1022,4 hPa 0,0 l/m 0,0 km/h (0 Bft) N 0 7,9 C 11,2 C 0,0 km/h (0 Bft) 100,00 %
18.09.2019 05:17 23,4 C 11,2 C 63 % 80 % 1022,4 hPa 0,0 l/m 0,0 km/h (0 Bft) W 270 7,9 C 11,2 C 1,6 km/h (1 Bft) 100,00 %
18.09.2019 05:16 23,4 C 11,2 C 63 % 80 % 1022,4 hPa 0,0 l/m 1,6 km/h (1 Bft) W-SW 247 7,9 C 11,2 C 3,2 km/h (1 Bft) 100,00 %
18.09.2019 05:15 23,4 C 11,2 C 63 % 80 % 1022,5 hPa 0,0 l/m 0,0 km/h (0 Bft) W-NW 292 7,9 C 11,2 C 1,6 km/h (1 Bft) 100,00 %
18.09.2019 05:14 23,4 C 11,3 C 63 % 80 % 1022,4 hPa 0,0 l/m 1,6 km/h (1 Bft) W 270 8,0 C 11,3 C 1,6 km/h (1 Bft) 100,00 %
18.09.2019 05:13 23,4 C 11,3 C 63 % 80 % 1022,4 hPa 0,0 l/m 1,6 km/h (1 Bft) W 270 8,0 C 11,3 C 1,6 km/h (1 Bft) 100,00 %
18.09.2019 05:12 23,4 C 11,3 C 63 % 80 % 1022,4 hPa 0,0 l/m 3,2 km/h (1 Bft) W 270 8,0 C 11,3 C 4,8 km/h (1 Bft) 100,00 %
18.09.2019 05:11 23,5 C 11,3 C 63 % 80 % 1022,3 hPa 0,0 l/m 3,2 km/h (1 Bft) W-NW 292 8,0 C 11,3 C 4,8 km/h (1 Bft) 100,00 %
18.09.2019 05:10 23,4 C 11,3 C 63 % 80 % 1022,2 hPa 0,0 l/m 1,6 km/h (1 Bft) SW 225 8,0 C 11,3 C 4,8 km/h (1 Bft) 100,00 %
18.09.2019 05:09 23,4 C 11,3 C 63 % 80 % 1022,2 hPa 0,0 l/m 1,6 km/h (1 Bft) W 270 8,0 C 11,3 C 3,2 km/h (1 Bft) 95,65 %
18.09.2019 05:08 23,4 C 11,3 C 63 % 80 % 1022,2 hPa 0,0 l/m 0,0 km/h (0 Bft) W 270 8,0 C 11,3 C 1,6 km/h (1 Bft) 100,00 %
18.09.2019 05:07 23,4 C 11,3 C 63 % 80 % 1022,3 hPa 0,0 l/m 1,6 km/h (1 Bft) W 270 8,0 C 11,3 C 6,4 km/h (2 Bft) 100,00 %
18.09.2019 05:06 23,4 C 11,4 C 63 % 80 % 1022,2 hPa 0,0 l/m 1,6 km/h (1 Bft) W 270 8,1 C 11,4 C 3,2 km/h (1 Bft) 95,65 %
18.09.2019 05:05 23,4 C 11,4 C 63 % 79 % 1022,1 hPa 0,0 l/m 3,2 km/h (1 Bft) W-NW 292 7,9 C 11,4 C 4,8 km/h (1 Bft) 100,00 %
18.09.2019 05:04 23,4 C 11,4 C 63 % 79 % 1022,2 hPa 0,0 l/m 1,6 km/h (1 Bft) W 270 7,9 C 11,4 C 3,2 km/h (1 Bft) 100,00 %
18.09.2019 05:03 23,4 C 11,4 C 63 % 79 % 1022,2 hPa 0,0 l/m 1,6 km/h (1 Bft) W 270 7,9 C 11,4 C 3,2 km/h (1 Bft) 100,00 %
18.09.2019 05:02 23,4 C 11,4 C 63 % 80 % 1022,1 hPa 0,0 l/m 1,6 km/h (1 Bft) W-NW 292 8,1 C 11,4 C 3,2 km/h (1 Bft) 100,00 %
18.09.2019 05:01 23,4 C 11,4 C 63 % 80 % 1022,1 hPa 0,0 l/m 1,6 km/h (1 Bft) W 270 8,1 C 11,4 C 4,8 km/h (1 Bft) 100,00 %
18.09.2019 05:00 23,4 C 11,4 C 63 % 79 % 1022,0 hPa 0,0 l/m 3,2 km/h (1 Bft) W-NW 292 7,9 C 11,4 C 4,8 km/h (1 Bft) 100,00 %
18.09.2019 04:59 23,4 C 11,4 C 63 % 80 % 1022,0 hPa 0,0 l/m 3,2 km/h (1 Bft) W 270 8,1 C 11,4 C 6,4 km/h (2 Bft) 100,00 %
18.09.2019 04:58 23,4 C 11,4 C 63 % 80 % 1022,1 hPa 0,0 l/m 3,2 km/h (1 Bft) W 270 8,1 C 11,4 C 6,4 km/h (2 Bft) 100,00 %
18.09.2019 04:57 23,4 C 11,4 C 63 % 80 % 1022,0 hPa 0,0 l/m 1,6 km/h (1 Bft) W 270 8,1 C 11,4 C 4,8 km/h (1 Bft) 100,00 %
18.09.2019 04:56 23,4 C 11,4 C 63 % 80 % 1022,0 hPa 0,0 l/m 3,2 km/h (1 Bft) W 270 8,1 C 11,4 C 4,8 km/h (1 Bft) 95,65 %
18.09.2019 04:55 23,4 C 11,4 C 63 % 80 % 1022,0 hPa 0,0 l/m 1,6 km/h (1 Bft) W 270 8,1 C 11,4 C 4,8 km/h (1 Bft) 95,65 %
18.09.2019 04:54 23,4 C 11,4 C 63 % 80 % 1022,0 hPa 0,0 l/m 1,6 km/h (1 Bft) W 270 8,1 C 11,4 C 3,2 km/h (1 Bft) 95,65 %
18.09.2019 04:53 23,4 C 11,4 C 63 % 80 % 1021,9 hPa 0,0 l/m 3,2 km/h (1 Bft) W 270 8,1 C 11,4 C 6,4 km/h (2 Bft) 100,00 %
18.09.2019 04:52 23,4 C 11,4 C 63 % 80 % 1022,0 hPa 0,0 l/m 1,6 km/h (1 Bft) W 270 8,1 C 11,4 C 3,2 km/h (1 Bft) 91,30 %
18.09.2019 04:51 23,4 C 11,4 C 63 % 80 % 1022,0 hPa 0,0 l/m 3,2 km/h (1 Bft) W 270 8,1 C 11,4 C 4,8 km/h (1 Bft) 100,00 %
18.09.2019 04:50 23,4 C 11,4 C 63 % 80 % 1021,9 hPa 0,0 l/m 3,2 km/h (1 Bft) W-NW 292 8,1 C 11,4 C 4,8 km/h (1 Bft) 100,00 %
18.09.2019 04:49 23,4 C 11,4 C 63 % 80 % 1021,9 hPa 0,0 l/m 1,6 km/h (1 Bft) W 270 8,1 C 11,4 C 6,4 km/h (2 Bft) 100,00 %
18.09.2019 04:48 23,4 C 11,4 C 63 % 80 % 1021,9 hPa 0,0 l/m 1,6 km/h (1 Bft) W-NW 292 8,1 C 11,4 C 3,2 km/h (1 Bft) 100,00 %
18.09.2019 04:47 23,4 C 11,4 C 63 % 81 % 1021,9 hPa 0,0 l/m 1,6 km/h (1 Bft) W 270 8,3 C 11,4 C 4,8 km/h (1 Bft) 100,00 %
18.09.2019 04:46 23,4 C 11,4 C 63 % 81 % 1021,8 hPa 0,0 l/m 1,6 km/h (1 Bft) W-SW 247 8,3 C 11,4 C 4,8 km/h (1 Bft) 100,00 %
18.09.2019 04:45 23,4 C 11,3 C 63 % 81 % 1021,8 hPa 0,0 l/m 1,6 km/h (1 Bft) W-SW 247 8,2 C 11,3 C 4,8 km/h (1 Bft) 100,00 %
18.09.2019 04:44 23,4 C 11,3 C 63 % 81 % 1021,8 hPa 0,0 l/m 3,2 km/h (1 Bft) W 270 8,2 C 11,3 C 6,4 km/h (2 Bft) 100,00 %
18.09.2019 04:43 23,4 C 11,3 C 63 % 81 % 1021,9 hPa 0,0 l/m 1,6 km/h (1 Bft) W 270 8,2 C 11,3 C 1,6 km/h (1 Bft) 95,65 %
18.09.2019 04:42 23,4 C 11,3 C 63 % 81 % 1021,8 hPa 0,0 l/m 1,6 km/h (1 Bft) W-SW 247 8,2 C 11,3 C 3,2 km/h (1 Bft) 95,65 %
18.09.2019 04:41 23,5 C 11,3 C 63 % 81 % 1021,9 hPa 0,0 l/m 3,2 km/h (1 Bft) W 270 8,2 C 11,3 C 8,0 km/h (2 Bft) 100,00 %
18.09.2019 04:40 23,4 C 11,3 C 63 % 81 % 1021,9 hPa 0,0 l/m 1,6 km/h (1 Bft) W 270 8,2 C 11,3 C 3,2 km/h (1 Bft) 100,00 %
18.09.2019 04:39 23,4 C 11,3 C 63 % 81 % 1021,9 hPa 0,0 l/m 0,0 km/h (0 Bft) W-SW 247 8,2 C 11,3 C 1,6 km/h (1 Bft) 100,00 %
18.09.2019 04:38 23,4 C 11,3 C 63 % 81 % 1021,9 hPa 0,0 l/m 1,6 km/h (1 Bft) W 270 8,2 C 11,3 C 3,2 km/h (1 Bft) 95,65 %
18.09.2019 04:37 23,4 C 11,3 C 63 % 82 % 1021,9 hPa 0,0 l/m 1,6 km/h (1 Bft) W 270 8,3 C 11,3 C 3,2 km/h (1 Bft) 100,00 %
18.09.2019 04:36 23,4 C 11,3 C 63 % 82 % 1021,9 hPa 0,0 l/m 0,0 km/h (0 Bft) W-SW 247 8,3 C 11,3 C 1,6 km/h (1 Bft) 91,30 %
18.09.2019 04:35 23,4 C 11,3 C 63 % 82 % 1021,9 hPa 0,0 l/m 1,6 km/h (1 Bft) W-SW 247 8,3 C 11,3 C 3,2 km/h (1 Bft) 95,65 %
18.09.2019 04:34 23,4 C 11,3 C 63 % 82 % 1021,9 hPa 0,0 l/m 1,6 km/h (1 Bft) W-SW 247 8,3 C 11,3 C 1,6 km/h (1 Bft) 100,00 %
18.09.2019 04:33 23,4 C 11,3 C 63 % 82 % 1021,9 hPa 0,0 l/m 1,6 km/h (1 Bft) W-SW 247 8,3 C 11,3 C 1,6 km/h (1 Bft) 100,00 %
18.09.2019 04:32 23,4 C 11,3 C 63 % 82 % 1021,9 hPa 0,0 l/m 0,0 km/h (0 Bft) W 270 8,3 C 11,3 C 1,6 km/h (1 Bft) 100,00 %
18.09.2019 04:31 23,4 C 11,3 C 63 % 82 % 1021,9 hPa 0,0 l/m 0,0 km/h (0 Bft) W 270 8,3 C 11,3 C 1,6 km/h (1 Bft) 100,00 %
18.09.2019 04:30 23,4 C 11,3 C 63 % 82 % 1021,8 hPa 0,0 l/m 0,0 km/h (0 Bft) W-SW 247 8,3 C 11,3 C 3,2 km/h (1 Bft) 91,30 %
18.09.2019 04:29 23,5 C 11,3 C 63 % 82 % 1021,7 hPa 0,0 l/m 0,0 km/h (0 Bft) W 270 8,3 C 11,3 C 1,6 km/h (1 Bft) 100,00 %
18.09.2019 04:28 23,4 C 11,3 C 63 % 82 % 1021,8 hPa 0,0 l/m 0,0 km/h (0 Bft) W 270 8,3 C 11,3 C 1,6 km/h (1 Bft) 100,00 %
18.09.2019 04:27 23,4 C 11,3 C 63 % 82 % 1021,7 hPa 0,0 l/m 0,0 km/h (0 Bft) N 0 8,3 C 11,3 C 0,0 km/h (0 Bft) 100,00 %
18.09.2019 04:26 23,4 C 11,3 C 63 % 82 % 1021,7 hPa 0,0 l/m 1,6 km/h (1 Bft) W 270 8,3 C 11,3 C 3,2 km/h (1 Bft) 86,96 %
18.09.2019 04:25 23,4 C 11,3 C 63 % 82 % 1021,7 hPa 0,0 l/m 0,0 km/h (0 Bft) W 270 8,3 C 11,3 C 1,6 km/h (1 Bft) 100,00 %
18.09.2019 04:24 23,4 C 11,4 C 63 % 81 % 1021,7 hPa 0,0 l/m 0,0 km/h (0 Bft) SW 225 8,3 C 11,4 C 1,6 km/h (1 Bft) 100,00 %
18.09.2019 04:23 23,4 C 11,4 C 63 % 81 % 1021,7 hPa 0,0 l/m 0,0 km/h (0 Bft) W-SW 247 8,3 C 11,4 C 1,6 km/h (1 Bft) 95,65 %
18.09.2019 04:22 23,4 C 11,4 C 63 % 81 % 1021,7 hPa 0,0 l/m 1,6 km/h (1 Bft) SW 225 8,3 C 11,4 C 3,2 km/h (1 Bft) 100,00 %
18.09.2019 04:21 23,4 C 11,4 C 63 % 81 % 1021,6 hPa 0,0 l/m 1,6 km/h (1 Bft) SW 225 8,3 C 11,4 C 3,2 km/h (1 Bft) 91,30 %
18.09.2019 04:20 23,5 C 11,4 C 63 % 81 % 1021,6 hPa 0,0 l/m 0,0 km/h (0 Bft) W 270 8,3 C 11,4 C 1,6 km/h (1 Bft) 95,65 %
18.09.2019 04:19 23,5 C 11,5 C 63 % 81 % 1021,6 hPa 0,0 l/m 0,0 km/h (0 Bft) W 270 8,4 C 11,5 C 1,6 km/h (1 Bft) 82,61 %
18.09.2019 04:18 23,4 C 11,5 C 63 % 81 % 1021,6 hPa 0,0 l/m 0,0 km/h (0 Bft) N 0 8,4 C 11,5 C 0,0 km/h (0 Bft) 100,00 %
18.09.2019 04:17 23,4 C 11,5 C 63 % 81 % 1021,6 hPa 0,0 l/m 0,0 km/h (0 Bft) W 270 8,4 C 11,5 C 1,6 km/h (1 Bft) 100,00 %
18.09.2019 04:16 23,4 C 11,5 C 63 % 81 % 1021,6 hPa 0,0 l/m 1,6 km/h (1 Bft) W 270 8,4 C 11,5 C 3,2 km/h (1 Bft) 100,00 %
18.09.2019 04:15 23,5 C 11,6 C 63 % 81 % 1021,6 hPa 0,0 l/m 0,0 km/h (0 Bft) N 0 8,5 C 11,6 C 0,0 km/h (0 Bft) 100,00 %
18.09.2019 04:14 23,5 C 11,6 C 63 % 81 % 1021,5 hPa 0,0 l/m 0,0 km/h (0 Bft) SW 225 8,5 C 11,6 C 1,6 km/h (1 Bft) 95,65 %
18.09.2019 04:13 23,5 C 11,6 C 63 % 81 % 1021,6 hPa 0,0 l/m 0,0 km/h (0 Bft) SW 225 8,5 C 11,6 C 1,6 km/h (1 Bft) 100,00 %
18.09.2019 04:12 23,5 C 11,6 C 63 % 81 % 1021,6 hPa 0,0 l/m 0,0 km/h (0 Bft) N 0 8,5 C 11,6 C 0,0 km/h (0 Bft) 100,00 %
18.09.2019 04:11 23,4 C 11,6 C 63 % 81 % 1021,6 hPa 0,0 l/m 0,0 km/h (0 Bft) W-SW 247 8,5 C 11,6 C 1,6 km/h (1 Bft) 100,00 %
18.09.2019 04:10 23,5 C 11,7 C 63 % 81 % 1021,6 hPa 0,0 l/m 0,0 km/h (0 Bft) W-SW 247 8,5 C 11,7 C 1,6 km/h (1 Bft) 100,00 %
18.09.2019 04:09 23,5 C 11,7 C 63 % 81 % 1021,5 hPa 0,0 l/m 0,0 km/h (0 Bft) W-SW 247 8,5 C 11,7 C 1,6 km/h (1 Bft) 95,65 %
18.09.2019 04:08 23,5 C 11,7 C 63 % 81 % 1021,5 hPa 0,0 l/m 0,0 km/h (0 Bft) W-SW 247 8,5 C 11,7 C 1,6 km/h (1 Bft) 100,00 %
18.09.2019 04:07 23,4 C 11,8 C 63 % 80 % 1021,5 hPa 0,0 l/m 0,0 km/h (0 Bft) SW 225 8,5 C 11,8 C 1,6 km/h (1 Bft) 100,00 %
18.09.2019 04:06 23,4 C 11,8 C 63 % 81 % 1021,5 hPa 0,0 l/m 0,0 km/h (0 Bft) N 0 8,6 C 11,8 C 0,0 km/h (0 Bft) 95,65 %
18.09.2019 04:05 23,5 C 11,8 C 63 % 80 % 1021,5 hPa 0,0 l/m 0,0 km/h (0 Bft) W-SW 247 8,5 C 11,8 C 1,6 km/h (1 Bft) 100,00 %
18.09.2019 04:04 23,4 C 11,8 C 63 % 81 % 1021,5 hPa 0,0 l/m 0,0 km/h (0 Bft) W-SW 247 8,6 C 11,8 C 1,6 km/h (1 Bft) 100,00 %
18.09.2019 04:03 23,5 C 11,8 C 63 % 80 % 1021,5 hPa 0,0 l/m 0,0 km/h (0 Bft) N 0 8,5 C 11,8 C 0,0 km/h (0 Bft) 100,00 %
18.09.2019 04:02 23,4 C 11,8 C 63 % 80 % 1021,4 hPa 0,0 l/m 0,0 km/h (0 Bft) W 270 8,5 C 11,8 C 1,6 km/h (1 Bft) 100,00 %
18.09.2019 04:01 23,5 C 11,9 C 63 % 80 % 1021,4 hPa 0,0 l/m 0,0 km/h (0 Bft) W 270 8,6 C 11,9 C 3,2 km/h (1 Bft) 100,00 %
18.09.2019 04:00 23,5 C 11,9 C 63 % 81 % 1021,4 hPa 0,0 l/m 1,6 km/h (1 Bft) W-SW 247 8,7 C 11,9 C 3,2 km/h (1 Bft) 95,65 %
18.09.2019 03:59 23,5 C 11,9 C 63 % 80 % 1021,4 hPa 0,0 l/m 3,2 km/h (1 Bft) W-SW 247 8,6 C 11,9 C 6,4 km/h (2 Bft) 100,00 %
18.09.2019 03:58 23,5 C 11,9 C 63 % 80 % 1021,4 hPa 0,0 l/m 0,0 km/h (0 Bft) W-SW 247 8,6 C 11,9 C 1,6 km/h (1 Bft) 100,00 %
18.09.2019 03:57 23,5 C 11,9 C 63 % 80 % 1021,5 hPa 0,0 l/m 1,6 km/h (1 Bft) W-SW 247 8,6 C 11,9 C 3,2 km/h (1 Bft) 100,00 %
18.09.2019 03:56 23,5 C 11,9 C 63 % 80 % 1021,4 hPa 0,0 l/m 1,6 km/h (1 Bft) W-SW 247 8,6 C 11,9 C 3,2 km/h (1 Bft) 100,00 %
18.09.2019 03:55 23,5 C 11,9 C 63 % 80 % 1021,4 hPa 0,0 l/m 0,0 km/h (0 Bft) W 270 8,6 C 11,9 C 1,6 km/h (1 Bft) 100,00 %
18.09.2019 03:54 23,5 C 11,9 C 63 % 80 % 1021,4 hPa 0,0 l/m 0,0 km/h (0 Bft) N 0 8,6 C 11,9 C 0,0 km/h (0 Bft) 100,00 %
18.09.2019 03:53 23,5 C 12,0 C 63 % 80 % 1021,3 hPa 0,0 l/m 1,6 km/h (1 Bft) W 270 8,7 C 12,0 C 1,6 km/h (1 Bft) 100,00 %
18.09.2019 03:52 23,5 C 12,0 C 63 % 80 % 1021,3 hPa 0,0 l/m 0,0 km/h (0 Bft) W 270 8,7 C 12,0 C 1,6 km/h (1 Bft) 100,00 %
18.09.2019 03:51 23,5 C 12,0 C 63 % 80 % 1021,3 hPa 0,0 l/m 1,6 km/h (1 Bft) W 270 8,7 C 12,0 C 1,6 km/h (1 Bft) 100,00 %
18.09.2019 03:50 23,5 C 12,0 C 63 % 80 % 1021,3 hPa 0,0 l/m 1,6 km/h (1 Bft) W-SW 247 8,7 C 12,0 C 3,2 km/h (1 Bft) 95,65 %
18.09.2019 03:49 23,5 C 12,1 C 63 % 80 % 1021,3 hPa 0,0 l/m 0,0 km/h (0 Bft) W 270 8,8 C 12,1 C 1,6 km/h (1 Bft) 100,00 %
18.09.2019 03:48 23,5 C 12,1 C 63 % 80 % 1021,2 hPa 0,0 l/m 3,2 km/h (1 Bft) W 270 8,8 C 12,1 C 6,4 km/h (2 Bft) 95,65 %
18.09.2019 03:47 23,5 C 12,1 C 63 % 80 % 1021,2 hPa 0,0 l/m 0,0 km/h (0 Bft) W 270 8,8 C 12,1 C 1,6 km/h (1 Bft) 100,00 %
18.09.2019 03:46 23,5 C 12,1 C 63 % 80 % 1021,2 hPa 0,0 l/m 1,6 km/h (1 Bft) W 270 8,8 C 12,1 C 3,2 km/h (1 Bft) 100,00 %
18.09.2019 03:45 23,5 C 12,1 C 63 % 80 % 1021,2 hPa 0,0 l/m 3,2 km/h (1 Bft) W-SW 247 8,8 C 12,1 C 4,8 km/h (1 Bft) 100,00 %
18.09.2019 03:44 23,5 C 12,1 C 63 % 80 % 1021,2 hPa 0,0 l/m 3,2 km/h (1 Bft) W 270 8,8 C 12,1 C 6,4 km/h (2 Bft) 100,00 %
18.09.2019 03:43 23,5 C 12,1 C 63 % 80 % 1021,2 hPa 0,0 l/m 1,6 km/h (1 Bft) SW 225 8,8 C 12,1 C 4,8 km/h (1 Bft) 100,00 %
18.09.2019 03:42 23,5 C 12,1 C 63 % 80 % 1021,2 hPa 0,0 l/m 0,0 km/h (0 Bft) SW 225 8,8 C 12,1 C 3,2 km/h (1 Bft) 100,00 %
18.09.2019 03:41 23,5 C 12,1 C 63 % 80 % 1021,1 hPa 0,0 l/m 3,2 km/h (1 Bft) W 270 8,8 C 12,1 C 4,8 km/h (1 Bft) 100,00 %
18.09.2019 03:40 23,5 C 12,1 C 63 % 80 % 1021,1 hPa 0,0 l/m 1,6 km/h (1 Bft) W 270 8,8 C 12,1 C 3,2 km/h (1 Bft) 100,00 %
18.09.2019 03:39 23,5 C 12,1 C 63 % 80 % 1021,1 hPa 0,0 l/m 1,6 km/h (1 Bft) SW 225 8,8 C 12,1 C 3,2 km/h (1 Bft) 100,00 %
18.09.2019 03:38 23,5 C 12,1 C 63 % 80 % 1021,1 hPa 0,0 l/m 0,0 km/h (0 Bft) W 270 8,8 C 12,1 C 1,6 km/h (1 Bft) 100,00 %
18.09.2019 03:37 23,5 C 12,1 C 63 % 80 % 1021,0 hPa 0,0 l/m 0,0 km/h (0 Bft) W-SW 247 8,8 C 12,1 C 1,6 km/h (1 Bft) 100,00 %
18.09.2019 03:36 23,6 C 12,2 C 63 % 80 % 1021,0 hPa 0,0 l/m 0,0 km/h (0 Bft) SW 225 8,9 C 12,2 C 1,6 km/h (1 Bft) 100,00 %
18.09.2019 03:35 23,5 C 12,2 C 63 % 80 % 1021,0 hPa 0,0 l/m 0,0 km/h (0 Bft) SW 225 8,9 C 12,2 C 1,6 km/h (1 Bft) 95,65 %
18.09.2019 03:34 23,5 C 12,2 C 63 % 80 % 1021,0 hPa 0,0 l/m 1,6 km/h (1 Bft) W 270 8,9 C 12,2 C 3,2 km/h (1 Bft) 100,00 %
18.09.2019 03:33 23,5 C 12,2 C 63 % 80 % 1021,0 hPa 0,0 l/m 1,6 km/h (1 Bft) W-SW 247 8,9 C 12,2 C 4,8 km/h (1 Bft) 95,65 %
18.09.2019 03:32 23,5 C 12,2 C 63 % 80 % 1021,0 hPa 0,0 l/m 1,6 km/h (1 Bft) W-SW 247 8,9 C 12,2 C 3,2 km/h (1 Bft) 100,00 %
18.09.2019 03:31 23,6 C 12,2 C 63 % 80 % 1020,9 hPa 0,0 l/m 3,2 km/h (1 Bft) W-SW 247 8,9 C 12,2 C 4,8 km/h (1 Bft) 100,00 %
18.09.2019 03:30 23,5 C 12,3 C 63 % 80 % 1020,9 hPa 0,0 l/m 1,6 km/h (1 Bft) SW 225 8,9 C 12,3 C 3,2 km/h (1 Bft) 100,00 %
18.09.2019 03:29 23,5 C 12,2 C 63 % 80 % 1020,9 hPa 0,0 l/m 3,2 km/h (1 Bft) W-SW 247 8,9 C 12,2 C 4,8 km/h (1 Bft) 100,00 %
18.09.2019 03:28 23,5 C 12,3 C 63 % 80 % 1020,9 hPa 0,0 l/m 1,6 km/h (1 Bft) SW 225 8,9 C 12,3 C 3,2 km/h (1 Bft) 100,00 %
18.09.2019 03:27 23,5 C 12,3 C 63 % 80 % 1020,9 hPa 0,0 l/m 0,0 km/h (0 Bft) SW 225 8,9 C 12,3 C 3,2 km/h (1 Bft) 100,00 %
18.09.2019 03:26 23,5 C 12,3 C 63 % 80 % 1020,9 hPa 0,0 l/m 0,0 km/h (0 Bft) SW 225 8,9 C 12,3 C 1,6 km/h (1 Bft) 100,00 %
18.09.2019 03:25 23,5 C 12,4 C 63 % 79 % 1020,9 hPa 0,0 l/m 0,0 km/h (0 Bft) W-SW 247 8,9 C 12,4 C 1,6 km/h (1 Bft) 100,00 %
18.09.2019 03:24 23,6 C 12,4 C 63 % 79 % 1020,9 hPa 0,0 l/m 0,0 km/h (0 Bft) W 270 8,9 C 12,4 C 1,6 km/h (1 Bft) 100,00 %
18.09.2019 03:23 23,6 C 12,4 C 63 % 79 % 1020,8 hPa 0,0 l/m 0,0 km/h (0 Bft) W-SW 247 8,9 C 12,4 C 1,6 km/h (1 Bft) 100,00 %
18.09.2019 03:22 23,5 C 12,4 C 63 % 79 % 1020,8 hPa 0,0 l/m 0,0 km/h (0 Bft) N 0 8,9 C 12,4 C 0,0 km/h (0 Bft) 100,00 %
18.09.2019 03:21 23,6 C 12,5 C 63 % 79 % 1020,8 hPa 0,0 l/m 0,0 km/h (0 Bft) W-SW 247 9,0 C 12,5 C 1,6 km/h (1 Bft) 95,65 %
18.09.2019 03:20 23,6 C 12,5 C 63 % 79 % 1020,8 hPa 0,0 l/m 1,6 km/h (1 Bft) W-SW 247 9,0 C 12,5 C 3,2 km/h (1 Bft) 100,00 %
18.09.2019 03:19 23,5 C 12,5 C 63 % 79 % 1020,8 hPa 0,0 l/m 1,6 km/h (1 Bft) W-SW 247 9,0 C 12,5 C 3,2 km/h (1 Bft) 100,00 %
18.09.2019 03:18 23,6 C 12,6 C 63 % 79 % 1020,8 hPa 0,0 l/m 3,2 km/h (1 Bft) W-SW 247 9,1 C 12,6 C 4,8 km/h (1 Bft) 95,65 %
18.09.2019 03:17 23,6 C 12,6 C 63 % 79 % 1020,8 hPa 0,0 l/m 3,2 km/h (1 Bft) W-SW 247 9,1 C 12,6 C 4,8 km/h (1 Bft) 100,00 %
18.09.2019 03:16 23,5 C 12,6 C 63 % 79 % 1020,8 hPa 0,0 l/m 3,2 km/h (1 Bft) W 270 9,1 C 12,6 C 3,2 km/h (1 Bft) 95,65 %
18.09.2019 03:15 23,5 C 12,6 C 63 % 79 % 1020,7 hPa 0,0 l/m 0,0 km/h (0 Bft) W-SW 247 9,1 C 12,6 C 1,6 km/h (1 Bft) 95,65 %
18.09.2019 03:14 23,6 C 12,6 C 63 % 79 % 1020,7 hPa 0,0 l/m 1,6 km/h (1 Bft) W 270 9,1 C 12,6 C 3,2 km/h (1 Bft) 95,65 %
18.09.2019 03:13 23,6 C 12,7 C 63 % 79 % 1020,7 hPa 0,0 l/m 1,6 km/h (1 Bft) SW 225 9,2 C 12,7 C 1,6 km/h (1 Bft) 100,00 %
18.09.2019 03:12 23,5 C 12,7 C 63 % 79 % 1020,6 hPa 0,0 l/m 0,0 km/h (0 Bft) W-SW 247 9,2 C 12,7 C 1,6 km/h (1 Bft) 91,30 %
18.09.2019 03:11 23,5 C 12,8 C 63 % 78 % 1020,7 hPa 0,0 l/m 1,6 km/h (1 Bft) SW 225 9,1 C 12,8 C 1,6 km/h (1 Bft) 100,00 %
18.09.2019 03:10 23,6 C 12,8 C 63 % 78 % 1020,6 hPa 0,0 l/m 3,2 km/h (1 Bft) W-SW 247 9,1 C 12,8 C 6,4 km/h (2 Bft) 100,00 %
18.09.2019 03:09 23,6 C 12,8 C 63 % 78 % 1020,6 hPa 0,0 l/m 1,6 km/h (1 Bft) SW 225 9,1 C 12,8 C 3,2 km/h (1 Bft) 95,65 %
18.09.2019 03:08 23,6 C 12,8 C 63 % 78 % 1020,6 hPa 0,0 l/m 3,2 km/h (1 Bft) W-SW 247 9,1 C 12,8 C 4,8 km/h (1 Bft) 95,65 %
18.09.2019 03:07 23,5 C 12,9 C 63 % 78 % 1020,6 hPa 0,0 l/m 1,6 km/h (1 Bft) W-SW 247 9,2 C 12,9 C 3,2 km/h (1 Bft) 100,00 %
18.09.2019 03:06 23,5 C 12,9 C 63 % 78 % 1020,5 hPa 0,0 l/m 1,6 km/h (1 Bft) W 270 9,2 C 12,9 C 4,8 km/h (1 Bft) 95,65 %
18.09.2019 03:05 23,6 C 12,9 C 63 % 77 % 1020,5 hPa 0,0 l/m 1,6 km/h (1 Bft) W-SW 247 9,0 C 12,9 C 4,8 km/h (1 Bft) 100,00 %
18.09.2019 03:04 23,6 C 13,0 C 63 % 77 % 1020,6 hPa 0,0 l/m 3,2 km/h (1 Bft) W-SW 247 9,1 C 13,0 C 6,4 km/h (2 Bft) 100,00 %
18.09.2019 03:03 23,6 C 13,0 C 63 % 77 % 1020,5 hPa 0,0 l/m 1,6 km/h (1 Bft) W-SW 247 9,1 C 13,0 C 3,2 km/h (1 Bft) 100,00 %
18.09.2019 03:02 23,6 C 13,1 C 63 % 77 % 1020,6 hPa 0,0 l/m 1,6 km/h (1 Bft) W-SW 247 9,2 C 13,1 C 1,6 km/h (1 Bft) 95,65 %
18.09.2019 03:01 23,6 C 13,1 C 63 % 77 % 1020,6 hPa 0,0 l/m 1,6 km/h (1 Bft) W-SW 247 9,2 C 13,1 C 3,2 km/h (1 Bft) 100,00 %
18.09.2019 03:00 23,6 C 13,1 C 63 % 77 % 1020,5 hPa 0,0 l/m 3,2 km/h (1 Bft) SW 225 9,2 C 13,1 C 4,8 km/h (1 Bft) 100,00 %
18.09.2019 02:59 23,6 C 13,1 C 63 % 77 % 1020,6 hPa 0,0 l/m 1,6 km/h (1 Bft) SW 225 9,2 C 13,1 C 3,2 km/h (1 Bft) 95,65 %
18.09.2019 02:58 23,6 C 13,1 C 63 % 77 % 1020,5 hPa 0,0 l/m 0,0 km/h (0 Bft) W-SW 247 9,2 C 13,1 C 1,6 km/h (1 Bft) 100,00 %
18.09.2019 02:57 23,6 C 13,1 C 63 % 77 % 1020,5 hPa 0,0 l/m 1,6 km/h (1 Bft) W-SW 247 9,2 C 13,1 C 3,2 km/h (1 Bft) 100,00 %
18.09.2019 02:56 23,6 C 13,2 C 63 % 77 % 1020,5 hPa 0,0 l/m 0,0 km/h (0 Bft) W-NW 292 9,3 C 13,2 C 1,6 km/h (1 Bft) 100,00 %
18.09.2019 02:55 23,6 C 13,2 C 63 % 77 % 1020,5 hPa 0,0 l/m 1,6 km/h (1 Bft) W-NW 292 9,3 C 13,2 C 3,2 km/h (1 Bft) 100,00 %
18.09.2019 02:54 23,6 C 13,2 C 63 % 77 % 1020,5 hPa 0,0 l/m 1,6 km/h (1 Bft) W-SW 247 9,3 C 13,2 C 6,4 km/h (2 Bft) 95,65 %
18.09.2019 02:53 23,6 C 13,2 C 63 % 77 % 1020,5 hPa 0,0 l/m 0,0 km/h (0 Bft) W 270 9,3 C 13,2 C 1,6 km/h (1 Bft) 100,00 %
18.09.2019 02:52 23,6 C 13,2 C 63 % 76 % 1020,5 hPa 0,0 l/m 1,6 km/h (1 Bft) W 270 9,1 C 13,2 C 4,8 km/h (1 Bft) 91,30 %
18.09.2019 02:51 23,6 C 13,3 C 63 % 77 % 1020,5 hPa 0,0 l/m 3,2 km/h (1 Bft) W 270 9,4 C 13,3 C 6,4 km/h (2 Bft) 100,00 %
18.09.2019 02:50 23,6 C 13,3 C 63 % 77 % 1020,5 hPa 0,0 l/m 1,6 km/h (1 Bft) SW 225 9,4 C 13,3 C 9,7 km/h (2 Bft) 95,65 %
18.09.2019 02:49 23,6 C 13,3 C 63 % 77 % 1020,4 hPa 0,0 l/m 3,2 km/h (1 Bft) W 270 9,4 C 13,3 C 4,8 km/h (1 Bft) 100,00 %
18.09.2019 02:48 23,6 C 13,3 C 62 % 77 % 1020,4 hPa 0,0 l/m 4,8 km/h (1 Bft) W-SW 247 9,4 C 13,3 C 9,7 km/h (2 Bft) 95,65 %
18.09.2019 02:47 23,6 C 13,2 C 63 % 77 % 1020,4 hPa 0,0 l/m 3,2 km/h (1 Bft) W 270 9,3 C 13,2 C 6,4 km/h (2 Bft) 100,00 %
18.09.2019 02:46 23,6 C 13,3 C 62 % 77 % 1020,4 hPa 0,0 l/m 3,2 km/h (1 Bft) W 270 9,4 C 13,3 C 4,8 km/h (1 Bft) 78,26 %
18.09.2019 02:45 23,6 C 13,2 C 62 % 77 % 1020,3 hPa 0,0 l/m 3,2 km/h (1 Bft) W-NW 292 9,3 C 13,2 C 6,4 km/h (2 Bft) 78,26 %
18.09.2019 02:44 23,6 C 13,2 C 62 % 77 % 1020,4 hPa 0,0 l/m 1,6 km/h (1 Bft) W-SW 247 9,3 C 13,2 C 6,4 km/h (2 Bft) 86,96 %
18.09.2019 02:43 23,6 C 13,3 C 62 % 77 % 1020,4 hPa 0,0 l/m 1,6 km/h (1 Bft) W-NW 292 9,4 C 13,3 C 3,2 km/h (1 Bft) 100,00 %
18.09.2019 02:42 23,6 C 13,3 C 62 % 77 % 1020,4 hPa 0,0 l/m 1,6 km/h (1 Bft) W 270 9,4 C 13,3 C 3,2 km/h (1 Bft) 86,96 %
18.09.2019 02:41 23,6 C 13,3 C 62 % 77 % 1020,4 hPa 0,0 l/m 1,6 km/h (1 Bft) W-NW 292 9,4 C 13,3 C 3,2 km/h (1 Bft) 100,00 %
18.09.2019 02:40 23,6 C 13,3 C 62 % 77 % 1020,4 hPa 0,0 l/m 0,0 km/h (0 Bft) W-NW 292 9,4 C 13,3 C 3,2 km/h (1 Bft) 100,00 %
18.09.2019 02:39 23,6 C 13,3 C 62 % 77 % 1020,4 hPa 0,0 l/m 1,6 km/h (1 Bft) W 270 9,4 C 13,3 C 4,8 km/h (1 Bft) 100,00 %
18.09.2019 02:38 23,6 C 13,3 C 62 % 77 % 1020,4 hPa 0,0 l/m 1,6 km/h (1 Bft) W-NW 292 9,4 C 13,3 C 4,8 km/h (1 Bft) 86,96 %
18.09.2019 02:37 23,6 C 13,3 C 62 % 77 % 1020,4 hPa 0,0 l/m 1,6 km/h (1 Bft) W 270 9,4 C 13,3 C 1,6 km/h (1 Bft) 100,00 %
18.09.2019 02:36 23,6 C 13,3 C 62 % 77 % 1020,4 hPa 0,0 l/m 1,6 km/h (1 Bft) W 270 9,4 C 13,3 C 3,2 km/h (1 Bft) 100,00 %
18.09.2019 02:35 23,6 C 13,3 C 62 % 77 % 1020,4 hPa 0,0 l/m 1,6 km/h (1 Bft) W-SW 247 9,4 C 13,3 C 4,8 km/h (1 Bft) 100,00 %
18.09.2019 02:34 23,6 C 13,3 C 62 % 77 % 1020,4 hPa 0,0 l/m 0,0 km/h (0 Bft) W 270 9,4 C 13,3 C 1,6 km/h (1 Bft) 100,00 %
18.09.2019 02:33 23,6 C 13,3 C 62 % 77 % 1020,5 hPa 0,0 l/m 1,6 km/h (1 Bft) W-NW 292 9,4 C 13,3 C 1,6 km/h (1 Bft) 100,00 %
18.09.2019 02:32 23,6 C 13,4 C 62 % 77 % 1020,4 hPa 0,0 l/m 0,0 km/h (0 Bft) W 270 9,5 C 13,4 C 1,6 km/h (1 Bft) 100,00 %
18.09.2019 02:31 23,6 C 13,4 C 62 % 77 % 1020,4 hPa 0,0 l/m 0,0 km/h (0 Bft) W 270 9,5 C 13,4 C 1,6 km/h (1 Bft) 100,00 %
18.09.2019 02:30 23,6 C 13,4 C 62 % 77 % 1020,4 hPa 0,0 l/m 1,6 km/h (1 Bft) W 270 9,5 C 13,4 C 1,6 km/h (1 Bft) 100,00 %
18.09.2019 02:29 23,6 C 13,4 C 62 % 77 % 1020,4 hPa 0,0 l/m 0,0 km/h (0 Bft) W 270 9,5 C 13,4 C 1,6 km/h (1 Bft) 95,65 %
18.09.2019 02:28 23,6 C 13,5 C 62 % 77 % 1020,4 hPa 0,0 l/m 1,6 km/h (1 Bft) W-NW 292 9,5 C 13,5 C 3,2 km/h (1 Bft) 95,65 %
18.09.2019 02:27 23,6 C 13,5 C 62 % 77 % 1020,5 hPa 0,0 l/m 1,6 km/h (1 Bft) W 270 9,5 C 13,5 C 3,2 km/h (1 Bft) 100,00 %
18.09.2019 02:26 23,6 C 13,5 C 62 % 77 % 1020,3 hPa 0,0 l/m 4,8 km/h (1 Bft) W 270 9,5 C 13,5 C 6,4 km/h (2 Bft) 100,00 %
18.09.2019 02:25 23,6 C 13,5 C 62 % 77 % 1020,4 hPa 0,0 l/m 1,6 km/h (1 Bft) SW 225 9,5 C 13,5 C 4,8 km/h (1 Bft) 100,00 %
18.09.2019 02:24 23,6 C 13,6 C 62 % 77 % 1020,3 hPa 0,0 l/m 0,0 km/h (0 Bft) W 270 9,6 C 13,6 C 3,2 km/h (1 Bft) 100,00 %
18.09.2019 02:23 23,7 C 13,5 C 62 % 77 % 1020,4 hPa 0,0 l/m 3,2 km/h (1 Bft) W 270 9,5 C 13,5 C 4,8 km/h (1 Bft) 100,00 %
18.09.2019 02:22 23,6 C 13,6 C 62 % 77 % 1020,3 hPa 0,0 l/m 1,6 km/h (1 Bft) W-NW 292 9,6 C 13,6 C 3,2 km/h (1 Bft) 100,00 %
18.09.2019 02:21 23,6 C 13,6 C 62 % 77 % 1020,3 hPa 0,0 l/m 3,2 km/h (1 Bft) W-SW 247 9,6 C 13,6 C 4,8 km/h (1 Bft) 95,65 %
18.09.2019 02:20 23,6 C 13,6 C 62 % 77 % 1020,4 hPa 0,0 l/m 1,6 km/h (1 Bft) SW 225 9,6 C 13,6 C 3,2 km/h (1 Bft) 100,00 %
18.09.2019 02:19 23,6 C 13,6 C 62 % 77 % 1020,4 hPa 0,0 l/m 0,0 km/h (0 Bft) SW 225 9,6 C 13,6 C 1,6 km/h (1 Bft) 100,00 %
18.09.2019 02:18 23,6 C 13,6 C 62 % 77 % 1020,4 hPa 0,0 l/m 0,0 km/h (0 Bft) N 0 9,6 C 13,6 C 0,0 km/h (0 Bft) 100,00 %
18.09.2019 02:17 23,6 C 13,6 C 62 % 77 % 1020,3 hPa 0,0 l/m 1,6 km/h (1 Bft) W-SW 247 9,6 C 13,6 C 3,2 km/h (1 Bft) 100,00 %
18.09.2019 02:16 23,6 C 13,6 C 62 % 77 % 1020,4 hPa 0,0 l/m 1,6 km/h (1 Bft) W 270 9,6 C 13,6 C 3,2 km/h (1 Bft) 95,65 %
18.09.2019 02:15 23,7 C 13,6 C 62 % 77 % 1020,4 hPa 0,0 l/m 1,6 km/h (1 Bft) W 270 9,6 C 13,6 C 3,2 km/h (1 Bft) 100,00 %
18.09.2019 02:14 23,7 C 13,6 C 62 % 77 % 1020,3 hPa 0,0 l/m 1,6 km/h (1 Bft) W-SW 247 9,6 C 13,6 C 3,2 km/h (1 Bft) 100,00 %
18.09.2019 02:13 23,7 C 13,6 C 62 % 77 % 1020,3 hPa 0,0 l/m 3,2 km/h (1 Bft) W 270 9,6 C 13,6 C 4,8 km/h (1 Bft) 95,65 %
18.09.2019 02:12 23,7 C 13,6 C 62 % 77 % 1020,3 hPa 0,0 l/m 1,6 km/h (1 Bft) W-NW 292 9,6 C 13,6 C 6,4 km/h (2 Bft) 100,00 %
18.09.2019 02:11 23,7 C 13,6 C 62 % 77 % 1020,4 hPa 0,0 l/m 1,6 km/h (1 Bft) W-SW 247 9,6 C 13,6 C 3,2 km/h (1 Bft) 100,00 %
18.09.2019 02:10 23,7 C 13,6 C 62 % 77 % 1020,4 hPa 0,0 l/m 1,6 km/h (1 Bft) W 270 9,6 C 13,6 C 3,2 km/h (1 Bft) 100,00 %
18.09.2019 02:09 23,7 C 13,6 C 62 % 77 % 1020,4 hPa 0,0 l/m 1,6 km/h (1 Bft) W 270 9,6 C 13,6 C 3,2 km/h (1 Bft) 95,65 %
18.09.2019 02:08 23,7 C 13,6 C 62 % 77 % 1020,4 hPa 0,0 l/m 1,6 km/h (1 Bft) W 270 9,6 C 13,6 C 3,2 km/h (1 Bft) 86,96 %
18.09.2019 02:07 23,7 C 13,6 C 62 % 78 % 1020,4 hPa 0,0 l/m 3,2 km/h (1 Bft) W 270 9,8 C 13,6 C 4,8 km/h (1 Bft) 100,00 %
18.09.2019 02:06 23,7 C 13,6 C 62 % 78 % 1020,4 hPa 0,0 l/m 3,2 km/h (1 Bft) W 270 9,8 C 13,6 C 8,0 km/h (2 Bft) 100,00 %
18.09.2019 02:05 23,7 C 13,6 C 62 % 78 % 1020,4 hPa 0,0 l/m 6,4 km/h (2 Bft) W-NW 292 9,8 C 13,6 C 9,7 km/h (2 Bft) 100,00 %
18.09.2019 02:04 23,8 C 13,6 C 62 % 78 % 1020,4 hPa 0,0 l/m 1,6 km/h (1 Bft) W-NW 292 9,8 C 13,6 C 4,8 km/h (1 Bft) 100,00 %
18.09.2019 02:03 23,8 C 13,6 C 62 % 78 % 1020,4 hPa 0,0 l/m 3,2 km/h (1 Bft) W 270 9,8 C 13,6 C 4,8 km/h (1 Bft) 95,65 %
18.09.2019 02:02 23,8 C 13,6 C 61 % 78 % 1020,4 hPa 0,0 l/m 3,2 km/h (1 Bft) W 270 9,8 C 13,6 C 6,4 km/h (2 Bft) 100,00 %
18.09.2019 02:01 23,9 C 13,5 C 61 % 78 % 1020,5 hPa 0,0 l/m 3,2 km/h (1 Bft) W 270 9,7 C 13,5 C 4,8 km/h (1 Bft) 100,00 %
18.09.2019 02:00 24,1 C 13,5 C 61 % 78 % 1020,5 hPa 0,0 l/m 1,6 km/h (1 Bft) W-NW 292 9,7 C 13,5 C 3,2 km/h (1 Bft) 100,00 %
18.09.2019 01:59 24,0 C 13,5 C 61 % 85 % 1020,5 hPa 0,0 l/m 3,2 km/h (1 Bft) W-NW 292 11,0 C 13,5 C 3,2 km/h (1 Bft) 4,35 %
18.09.2019 01:58 24,0 C 15,2 C 61 % 85 % 1020,5 hPa 0,0 l/m 0,0 km/h (0 Bft) N 0 12,7 C 15,2 C 0,0 km/h (0 Bft) 0,00 %
18.09.2019 01:57 23,8 C 15,2 C 61 % 85 % 1020,4 hPa 0,0 l/m 0,0 km/h (0 Bft) N 0 12,7 C 15,2 C 0,0 km/h (0 Bft) 0,00 %
18.09.2019 01:56 23,7 C 15,2 C 62 % 85 % 1020,3 hPa 0,0 l/m 0,0 km/h (0 Bft) N 0 12,7 C 15,2 C 0,0 km/h (0 Bft) 0,00 %
18.09.2019 01:55 23,7 C 15,2 C 62 % 85 % 1020,3 hPa 0,0 l/m 0,0 km/h (0 Bft) N 0 12,7 C 15,2 C 0,0 km/h (0 Bft) 0,00 %
18.09.2019 01:54 23,7 C 15,2 C 62 % 85 % 1020,4 hPa 0,0 l/m 0,0 km/h (0 Bft) N 0 12,7 C 15,2 C 0,0 km/h (0 Bft) 0,00 %
18.09.2019 01:53 23,7 C 15,2 C 62 % 85 % 1020,4 hPa 0,0 l/m 0,0 km/h (0 Bft) N 0 12,7 C 15,2 C 0,0 km/h (0 Bft) 0,00 %
18.09.2019 01:52 23,7 C 15,2 C 62 % 85 % 1020,4 hPa 0,0 l/m 0,0 km/h (0 Bft) N 0 12,7 C 15,2 C 0,0 km/h (0 Bft) 0,00 %
18.09.2019 01:51 23,7 C 15,2 C 62 % 85 % 1020,4 hPa 0,0 l/m 0,0 km/h (0 Bft) N 0 12,7 C 15,2 C 0,0 km/h (0 Bft) 0,00 %
18.09.2019 01:50 23,7 C 15,2 C 62 % 85 % 1020,4 hPa 0,0 l/m 0,0 km/h (0 Bft) N 0 12,7 C 15,2 C 0,0 km/h (0 Bft) 0,00 %
18.09.2019 01:49 23,7 C 15,2 C 62 % 85 % 1020,5 hPa 0,0 l/m 0,0 km/h (0 Bft) N 0 12,7 C 15,2 C 0,0 km/h (0 Bft) 0,00 %
18.09.2019 01:48 23,8 C 15,2 C 61 % 85 % 1020,4 hPa 0,0 l/m 0,0 km/h (0 Bft) N 0 12,7 C 15,2 C 0,0 km/h (0 Bft) 0,00 %
18.09.2019 01:47 23,8 C 15,2 C 61 % 85 % 1020,4 hPa 0,0 l/m 0,0 km/h (0 Bft) N 0 12,7 C 15,2 C 0,0 km/h (0 Bft) 0,00 %
18.09.2019 01:46 23,8 C 15,2 C 61 % 85 % 1020,5 hPa 0,0 l/m 0,0 km/h (0 Bft) N 0 12,7 C 15,2 C 0,0 km/h (0 Bft) 0,00 %
18.09.2019 01:45 23,9 C 15,2 C 61 % 85 % 1020,4 hPa 0,0 l/m 0,0 km/h (0 Bft) N 0 12,7 C 15,2 C 0,0 km/h (0 Bft) 0,00 %
18.09.2019 01:44 23,9 C 15,2 C 61 % 85 % 1020,4 hPa 0,0 l/m 0,0 km/h (0 Bft) N 0 12,7 C 15,2 C 0,0 km/h (0 Bft) 0,00 %
18.09.2019 01:43 24,0 C 15,2 C 61 % 85 % 1020,5 hPa 0,0 l/m 0,0 km/h (0 Bft) N 0 12,7 C 15,2 C 0,0 km/h (0 Bft) 0,00 %
18.09.2019 01:42 24,2 C 15,2 C 60 % 85 % 1020,5 hPa 0,0 l/m 0,0 km/h (0 Bft) N 0 12,7 C 15,2 C 0,0 km/h (0 Bft) 0,00 %
18.09.2019 01:41 24,2 C 15,2 C 60 % 85 % 1020,5 hPa 0,0 l/m 0,0 km/h (0 Bft) N 0 12,7 C 15,2 C 0,0 km/h (0 Bft) 0,00 %
18.09.2019 01:40 24,2 C 15,2 C 60 % 85 % 1020,5 hPa 0,0 l/m 0,0 km/h (0 Bft) N 0 12,7 C 15,2 C 0,0 km/h (0 Bft) 0,00 %
18.09.2019 01:39 24,2 C 15,2 C 60 % 85 % 1020,4 hPa 0,0 l/m 0,0 km/h (0 Bft) N 0 12,7 C 15,2 C 0,0 km/h (0 Bft) 0,00 %
18.09.2019 01:38 24,2 C 15,2 C 60 % 85 % 1020,5 hPa 0,0 l/m 0,0 km/h (0 Bft) N 0 12,7 C 15,2 C 0,0 km/h (0 Bft) 0,00 %
18.09.2019 01:37 24,1 C 15,2 C 60 % 85 % 1020,5 hPa 0,0 l/m 0,0 km/h (0 Bft) N 0 12,7 C 15,2 C 0,0 km/h (0 Bft) 0,00 %
18.09.2019 01:36 24,1 C 15,2 C 60 % 85 % 1020,4 hPa 0,0 l/m 0,0 km/h (0 Bft) N 0 12,7 C 15,2 C 0,0 km/h (0 Bft) 0,00 %
18.09.2019 01:35 24,1 C 15,2 C 61 % 85 % 1020,4 hPa 0,0 l/m 0,0 km/h (0 Bft) N 0 12,7 C 15,2 C 0,0 km/h (0 Bft) 0,00 %
18.09.2019 01:34 24,0 C 15,2 C 61 % 85 % 1020,5 hPa 0,0 l/m 0,0 km/h (0 Bft) N 0 12,7 C 15,2 C 0,0 km/h (0 Bft) 0,00 %
18.09.2019 01:33 23,9 C 15,2 C 61 % 85 % 1020,4 hPa 0,0 l/m 0,0 km/h (0 Bft) N 0 12,7 C 15,2 C 0,0 km/h (0 Bft) 0,00 %
18.09.2019 01:32 23,8 C 15,2 C 61 % 85 % 1020,4 hPa 0,0 l/m 0,0 km/h (0 Bft) N 0 12,7 C 15,2 C 0,0 km/h (0 Bft) 0,00 %
18.09.2019 01:31 23,7 C 15,2 C 62 % 85 % 1020,2 hPa 0,0 l/m 0,0 km/h (0 Bft) N 0 12,7 C 15,2 C 0,0 km/h (0 Bft) 0,00 %
18.09.2019 01:30 23,7 C 15,2 C 61 % 85 % 1020,3 hPa 0,0 l/m 0,0 km/h (0 Bft) N 0 12,7 C 15,2 C 0,0 km/h (0 Bft) 0,00 %
18.09.2019 01:29 23,7 C 15,2 C 61 % 85 % 1020,3 hPa 0,0 l/m 0,0 km/h (0 Bft) N 0 12,7 C 15,2 C 0,0 km/h (0 Bft) 0,00 %
18.09.2019 01:28 23,7 C 15,2 C 61 % 85 % 1020,3 hPa 0,0 l/m 0,0 km/h (0 Bft) N 0 12,7 C 15,2 C 0,0 km/h (0 Bft) 0,00 %
18.09.2019 01:27 23,7 C 15,2 C 61 % 85 % 1020,2 hPa 0,0 l/m 0,0 km/h (0 Bft) N 0 12,7 C 15,2 C 0,0 km/h (0 Bft) 0,00 %
18.09.2019 01:26 23,7 C 15,2 C 61 % 85 % 1020,3 hPa 0,0 l/m 0,0 km/h (0 Bft) N 0 12,7 C 15,2 C 0,0 km/h (0 Bft) 0,00 %
18.09.2019 01:25 23,7 C 15,2 C 61 % 85 % 1020,3 hPa 0,0 l/m 0,0 km/h (0 Bft) N 0 12,7 C 15,2 C 0,0 km/h (0 Bft) 0,00 %
18.09.2019 01:24 23,8 C 15,2 C 61 % 85 % 1020,3 hPa 0,0 l/m 0,0 km/h (0 Bft) N 0 12,7 C 15,2 C 0,0 km/h (0 Bft) 0,00 %
18.09.2019 01:23 23,8 C 15,2 C 61 % 85 % 1020,3 hPa 0,0 l/m 0,0 km/h (0 Bft) N 0 12,7 C 15,2 C 0,0 km/h (0 Bft) 0,00 %
18.09.2019 01:22 23,8 C 15,2 C 61 % 85 % 1020,3 hPa 0,0 l/m 0,0 km/h (0 Bft) N 0 12,7 C 15,2 C 0,0 km/h (0 Bft) 0,00 %
18.09.2019 01:21 23,8 C 15,2 C 61 % 85 % 1020,2 hPa 0,0 l/m 0,0 km/h (0 Bft) N 0 12,7 C 15,2 C 0,0 km/h (0 Bft) 0,00 %
18.09.2019 01:20 23,8 C 15,2 C 61 % 85 % 1020,2 hPa 0,0 l/m 0,0 km/h (0 Bft) N 0 12,7 C 15,2 C 0,0 km/h (0 Bft) 0,00 %
18.09.2019 01:19 23,9 C 15,2 C 61 % 85 % 1020,2 hPa 0,0 l/m 0,0 km/h (0 Bft) N 0 12,7 C 15,2 C 0,0 km/h (0 Bft) 0,00 %
18.09.2019 01:18 24,0 C 15,2 C 60 % 85 % 1020,3 hPa 0,0 l/m 0,0 km/h (0 Bft) N 0 12,7 C 15,2 C 0,0 km/h (0 Bft) 0,00 %
18.09.2019 01:17 24,2 C 15,2 C 60 % 85 % 1020,2 hPa 0,0 l/m 0,0 km/h (0 Bft) N 0 12,7 C 15,2 C 0,0 km/h (0 Bft) 0,00 %
18.09.2019 01:16 24,2 C 15,2 C 60 % 85 % 1020,3 hPa 0,0 l/m 0,0 km/h (0 Bft) N 0 12,7 C 15,2 C 0,0 km/h (0 Bft) 0,00 %
18.09.2019 01:15 24,2 C 15,2 C 60 % 85 % 1020,3 hPa 0,0 l/m 0,0 km/h (0 Bft) N 0 12,7 C 15,2 C 0,0 km/h (0 Bft) 0,00 %
18.09.2019 01:14 24,2 C 15,2 C 60 % 85 % 1020,3 hPa 0,0 l/m 0,0 km/h (0 Bft) N 0 12,7 C 15,2 C 0,0 km/h (0 Bft) 0,00 %
18.09.2019 01:13 24,2 C 15,2 C 60 % 85 % 1020,3 hPa 0,0 l/m 0,0 km/h (0 Bft) N 0 12,7 C 15,2 C 0,0 km/h (0 Bft) 0,00 %
18.09.2019 01:12 24,1 C 15,2 C 60 % 85 % 1020,2 hPa 0,0 l/m 0,0 km/h (0 Bft) N 0 12,7 C 15,2 C 0,0 km/h (0 Bft) 0,00 %
18.09.2019 01:11 24,1 C 15,2 C 60 % 85 % 1020,2 hPa 0,0 l/m 0,0 km/h (0 Bft) N 0 12,7 C 15,2 C 0,0 km/h (0 Bft) 0,00 %
18.09.2019 01:10 24,1 C 15,2 C 60 % 85 % 1020,2 hPa 0,0 l/m 0,0 km/h (0 Bft) N 0 12,7 C 15,2 C 0,0 km/h (0 Bft) 0,00 %
18.09.2019 01:09 24,1 C 15,2 C 60 % 85 % 1020,1 hPa 0,0 l/m 0,0 km/h (0 Bft) N 0 12,7 C 15,2 C 0,0 km/h (0 Bft) 0,00 %
18.09.2019 01:08 23,9 C 15,2 C 61 % 85 % 1020,0 hPa 0,0 l/m 0,0 km/h (0 Bft) N 0 12,7 C 15,2 C 0,0 km/h (0 Bft) 0,00 %
18.09.2019 01:07 23,9 C 15,2 C 61 % 85 % 1020,1 hPa 0,0 l/m 0,0 km/h (0 Bft) N 0 12,7 C 15,2 C 0,0 km/h (0 Bft) 0,00 %
18.09.2019 01:06 23,7 C 15,2 C 61 % 85 % 1020,0 hPa 0,0 l/m 0,0 km/h (0 Bft) N 0 12,7 C 15,2 C 0,0 km/h (0 Bft) 0,00 %
18.09.2019 01:05 23,7 C 15,2 C 61 % 85 % 1020,1 hPa 0,0 l/m 0,0 km/h (0 Bft) N 0 12,7 C 15,2 C 0,0 km/h (0 Bft) 0,00 %
18.09.2019 01:04 23,7 C 15,2 C 61 % 85 % 1020,0 hPa 0,0 l/m 0,0 km/h (0 Bft) N 0 12,7 C 15,2 C 0,0 km/h (0 Bft) 0,00 %
18.09.2019 01:03 23,7 C 15,2 C 61 % 85 % 1020,1 hPa 0,0 l/m 0,0 km/h (0 Bft) N 0 12,7 C 15,2 C 0,0 km/h (0 Bft) 0,00 %
18.09.2019 01:02 23,7 C 15,2 C 61 % 85 % 1020,0 hPa 0,0 l/m 0,0 km/h (0 Bft) N 0 12,7 C 15,2 C 0,0 km/h (0 Bft) 0,00 %
18.09.2019 01:01 23,7 C 15,2 C 61 % 85 % 1020,1 hPa 0,0 l/m 0,0 km/h (0 Bft) N 0 12,7 C 15,2 C 0,0 km/h (0 Bft) 0,00 %
18.09.2019 01:00 23,7 C 15,2 C 61 % 85 % 1020,1 hPa 0,0 l/m 0,0 km/h (0 Bft) N 0 12,7 C 15,2 C 0,0 km/h (0 Bft) 0,00 %
18.09.2019 00:59 23,7 C 15,2 C 61 % 85 % 1020,0 hPa 0,0 l/m 0,0 km/h (0 Bft) N 0 12,7 C 15,2 C 0,0 km/h (0 Bft) 0,00 %
18.09.2019 00:58 23,7 C 15,2 C 61 % 85 % 1020,1 hPa 0,0 l/m 0,0 km/h (0 Bft) N 0 12,7 C 15,2 C 0,0 km/h (0 Bft) 0,00 %
18.09.2019 00:57 23,8 C 15,2 C 61 % 85 % 1020,0 hPa 0,0 l/m 0,0 km/h (0 Bft) N 0 12,7 C 15,2 C 0,0 km/h (0 Bft) 0,00 %
18.09.2019 00:56 23,8 C 15,2 C 61 % 85 % 1020,0 hPa 0,0 l/m 0,0 km/h (0 Bft) N 0 12,7 C 15,2 C 0,0 km/h (0 Bft) 0,00 %
18.09.2019 00:55 23,8 C 15,2 C 61 % 85 % 1020,0 hPa 0,0 l/m 0,0 km/h (0 Bft) N 0 12,7 C 15,2 C 0,0 km/h (0 Bft) 0,00 %
18.09.2019 00:54 23,8 C 15,2 C 61 % 85 % 1020,1 hPa 0,0 l/m 0,0 km/h (0 Bft) N 0 12,7 C 15,2 C 0,0 km/h (0 Bft) 0,00 %
18.09.2019 00:53 23,9 C 15,2 C 61 % 85 % 1020,0 hPa 0,0 l/m 0,0 km/h (0 Bft) N 0 12,7 C 15,2 C 0,0 km/h (0 Bft) 0,00 %
18.09.2019 00:52 24,1 C 15,2 C 60 % 85 % 1020,1 hPa 0,0 l/m 0,0 km/h (0 Bft) N 0 12,7 C 15,2 C 0,0 km/h (0 Bft) 0,00 %
18.09.2019 00:50 24,2 C 15,2 C 60 % 85 % 1020,1 hPa 0,0 l/m 0,0 km/h (0 Bft) N 0 12,7 C 15,2 C 0,0 km/h (0 Bft) 0,00 %
18.09.2019 00:49 24,2 C 15,2 C 60 % 85 % 1020,1 hPa 0,0 l/m 0,0 km/h (0 Bft) N 0 12,7 C 15,2 C 0,0 km/h (0 Bft) 0,00 %
18.09.2019 00:48 24,2 C 15,2 C 60 % 85 % 1020,1 hPa 0,0 l/m 0,0 km/h (0 Bft) N 0 12,7 C 15,2 C 0,0 km/h (0 Bft) 0,00 %
18.09.2019 00:47 24,2 C 15,2 C 60 % 85 % 1020,0 hPa 0,0 l/m 0,0 km/h (0 Bft) N 0 12,7 C 15,2 C 0,0 km/h (0 Bft) 0,00 %
18.09.2019 00:46 24,1 C 15,2 C 60 % 85 % 1020,0 hPa 0,0 l/m 0,0 km/h (0 Bft) N 0 12,7 C 15,2 C 0,0 km/h (0 Bft) 0,00 %
18.09.2019 00:45 24,1 C 15,2 C 60 % 85 % 1020,1 hPa 0,0 l/m 0,0 km/h (0 Bft) N 0 12,7 C 15,2 C 0,0 km/h (0 Bft) 0,00 %
18.09.2019 00:44 24,1 C 15,2 C 60 % 85 % 1020,0 hPa 0,0 l/m 0,0 km/h (0 Bft) N 0 12,7 C 15,2 C 0,0 km/h (0 Bft) 0,00 %
18.09.2019 00:43 24,1 C 15,2 C 60 % 85 % 1020,0 hPa 0,0 l/m 0,0 km/h (0 Bft) N 0 12,7 C 15,2 C 0,0 km/h (0 Bft) 0,00 %
18.09.2019 00:42 24,0 C 15,2 C 60 % 85 % 1020,0 hPa 0,0 l/m 0,0 km/h (0 Bft) N 0 12,7 C 15,2 C 0,0 km/h (0 Bft) 0,00 %
18.09.2019 00:41 23,8 C 15,2 C 61 % 85 % 1019,9 hPa 0,0 l/m 0,0 km/h (0 Bft) N 0 12,7 C 15,2 C 0,0 km/h (0 Bft) 0,00 %
18.09.2019 00:40 23,7 C 15,2 C 61 % 85 % 1019,9 hPa 0,0 l/m 0,0 km/h (0 Bft) N 0 12,7 C 15,2 C 0,0 km/h (0 Bft) 0,00 %
18.09.2019 00:39 23,7 C 15,2 C 61 % 85 % 1019,9 hPa 0,0 l/m 0,0 km/h (0 Bft) N 0 12,7 C 15,2 C 0,0 km/h (0 Bft) 0,00 %
18.09.2019 00:38 23,7 C 15,2 C 61 % 85 % 1019,9 hPa 0,0 l/m 0,0 km/h (0 Bft) N 0 12,7 C 15,2 C 0,0 km/h (0 Bft) 0,00 %
18.09.2019 00:37 23,7 C 15,2 C 61 % 85 % 1019,9 hPa 0,0 l/m 0,0 km/h (0 Bft) N 0 12,7 C 15,2 C 0,0 km/h (0 Bft) 0,00 %
18.09.2019 00:36 23,7 C 15,2 C 61 % 85 % 1019,9 hPa 0,0 l/m 0,0 km/h (0 Bft) N 0 12,7 C 15,2 C 0,0 km/h (0 Bft) 0,00 %
18.09.2019 00:35 23,7 C 15,2 C 61 % 85 % 1019,8 hPa 0,0 l/m 0,0 km/h (0 Bft) N 0 12,7 C 15,2 C 0,0 km/h (0 Bft) 0,00 %
18.09.2019 00:34 23,7 C 15,2 C 61 % 85 % 1019,8 hPa 0,0 l/m 0,0 km/h (0 Bft) N 0 12,7 C 15,2 C 0,0 km/h (0 Bft) 0,00 %
18.09.2019 00:33 23,8 C 15,2 C 61 % 85 % 1020,0 hPa 0,0 l/m 0,0 km/h (0 Bft) N 0 12,7 C 15,2 C 0,0 km/h (0 Bft) 0,00 %
18.09.2019 00:32 23,8 C 15,2 C 61 % 85 % 1019,9 hPa 0,0 l/m 0,0 km/h (0 Bft) N 0 12,7 C 15,2 C 0,0 km/h (0 Bft) 0,00 %
18.09.2019 00:31 23,8 C 15,2 C 61 % 85 % 1019,9 hPa 0,0 l/m 0,0 km/h (0 Bft) N 0 12,7 C 15,2 C 0,0 km/h (0 Bft) 0,00 %
18.09.2019 00:30 23,8 C 15,2 C 60 % 85 % 1019,9 hPa 0,0 l/m 0,0 km/h (0 Bft) N 0 12,7 C 15,2 C 0,0 km/h (0 Bft) 0,00 %
18.09.2019 00:29 23,9 C 15,2 C 60 % 85 % 1019,8 hPa 0,0 l/m 0,0 km/h (0 Bft) N 0 12,7 C 15,2 C 0,0 km/h (0 Bft) 0,00 %
18.09.2019 00:28 23,9 C 15,2 C 60 % 85 % 1019,9 hPa 0,0 l/m 0,0 km/h (0 Bft) N 0 12,7 C 15,2 C 0,0 km/h (0 Bft) 0,00 %
18.09.2019 00:27 24,0 C 15,2 C 60 % 85 % 1019,8 hPa 0,0 l/m 0,0 km/h (0 Bft) N 0 12,7 C 15,2 C 0,0 km/h (0 Bft) 0,00 %
18.09.2019 00:26 24,1 C 15,2 C 60 % 85 % 1019,9 hPa 0,0 l/m 0,0 km/h (0 Bft) N 0 12,7 C 15,2 C 0,0 km/h (0 Bft) 0,00 %
18.09.2019 00:25 24,2 C 15,2 C 59 % 85 % 1019,9 hPa 0,0 l/m 0,0 km/h (0 Bft) N 0 12,7 C 15,2 C 0,0 km/h (0 Bft) 0,00 %
18.09.2019 00:24 24,2 C 15,2 C 59 % 85 % 1019,9 hPa 0,0 l/m 0,0 km/h (0 Bft) N 0 12,7 C 15,2 C 0,0 km/h (0 Bft) 0,00 %
18.09.2019 00:23 24,2 C 15,2 C 59 % 85 % 1019,9 hPa 0,0 l/m 0,0 km/h (0 Bft) N 0 12,7 C 15,2 C 0,0 km/h (0 Bft) 0,00 %
18.09.2019 00:22 24,2 C 15,2 C 59 % 85 % 1019,9 hPa 0,0 l/m 0,0 km/h (0 Bft) N 0 12,7 C 15,2 C 0,0 km/h (0 Bft) 0,00 %
18.09.2019 00:21 24,2 C 15,2 C 59 % 85 % 1019,9 hPa 0,0 l/m 0,0 km/h (0 Bft) N 0 12,7 C 15,2 C 0,0 km/h (0 Bft) 0,00 %
18.09.2019 00:20 24,1 C 15,2 C 60 % 85 % 1019,9 hPa 0,0 l/m 0,0 km/h (0 Bft) N 0 12,7 C 15,2 C 0,0 km/h (0 Bft) 0,00 %
18.09.2019 00:19 24,1 C 15,2 C 60 % 85 % 1019,9 hPa 0,0 l/m 0,0 km/h (0 Bft) N 0 12,7 C 15,2 C 0,0 km/h (0 Bft) 0,00 %
18.09.2019 00:18 24,1 C 15,2 C 60 % 85 % 1019,9 hPa 0,0 l/m 0,0 km/h (0 Bft) N 0 12,7 C 15,2 C 0,0 km/h (0 Bft) 0,00 %
18.09.2019 00:17 23,9 C 15,2 C 60 % 85 % 1019,9 hPa 0,0 l/m 0,0 km/h (0 Bft) N 0 12,7 C 15,2 C 0,0 km/h (0 Bft) 0,00 %
18.09.2019 00:16 23,9 C 15,2 C 60 % 85 % 1019,8 hPa 0,0 l/m 0,0 km/h (0 Bft) N 0 12,7 C 15,2 C 0,0 km/h (0 Bft) 0,00 %
18.09.2019 00:15 23,7 C 15,2 C 61 % 85 % 1019,8 hPa 0,0 l/m 0,0 km/h (0 Bft) N 0 12,7 C 15,2 C 0,0 km/h (0 Bft) 0,00 %
18.09.2019 00:14 23,7 C 15,2 C 61 % 85 % 1019,8 hPa 0,0 l/m 0,0 km/h (0 Bft) N 0 12,7 C 15,2 C 0,0 km/h (0 Bft) 0,00 %
18.09.2019 00:13 23,7 C 15,2 C 61 % 85 % 1019,8 hPa 0,0 l/m 0,0 km/h (0 Bft) N 0 12,7 C 15,2 C 0,0 km/h (0 Bft) 0,00 %
18.09.2019 00:12 23,7 C 15,2 C 61 % 85 % 1019,8 hPa 0,0 l/m 0,0 km/h (0 Bft) N 0 12,7 C 15,2 C 0,0 km/h (0 Bft) 0,00 %
18.09.2019 00:11 23,7 C 15,2 C 60 % 85 % 1019,7 hPa 0,0 l/m 0,0 km/h (0 Bft) N 0 12,7 C 15,2 C 0,0 km/h (0 Bft) 0,00 %
18.09.2019 00:10 23,7 C 15,2 C 60 % 85 % 1019,8 hPa 0,0 l/m 0,0 km/h (0 Bft) N 0 12,7 C 15,2 C 0,0 km/h (0 Bft) 0,00 %
18.09.2019 00:09 23,8 C 15,2 C 60 % 85 % 1019,7 hPa 0,0 l/m 0,0 km/h (0 Bft) N 0 12,7 C 15,2 C 0,0 km/h (0 Bft) 0,00 %
18.09.2019 00:08 23,8 C 15,2 C 60 % 85 % 1019,7 hPa 0,0 l/m 0,0 km/h (0 Bft) N 0 12,7 C 15,2 C 0,0 km/h (0 Bft) 0,00 %
18.09.2019 00:07 23,8 C 15,2 C 60 % 85 % 1019,8 hPa 0,0 l/m 0,0 km/h (0 Bft) N 0 12,7 C 15,2 C 0,0 km/h (0 Bft) 0,00 %
18.09.2019 00:06 23,8 C 15,2 C 60 % 85 % 1019,7 hPa 0,0 l/m 0,0 km/h (0 Bft) N 0 12,7 C 15,2 C 0,0 km/h (0 Bft) 0,00 %
18.09.2019 00:05 23,8 C 15,2 C 60 % 85 % 1019,7 hPa 0,0 l/m 0,0 km/h (0 Bft) N 0 12,7 C 15,2 C 0,0 km/h (0 Bft) 0,00 %
18.09.2019 00:04 23,9 C 15,2 C 60 % 85 % 1019,7 hPa 0,0 l/m 0,0 km/h (0 Bft) N 0 12,7 C 15,2 C 0,0 km/h (0 Bft) 0,00 %
18.09.2019 00:03 23,9 C 15,2 C 60 % 85 % 1019,7 hPa 0,0 l/m 0,0 km/h (0 Bft) N 0 12,7 C 15,2 C 0,0 km/h (0 Bft) 0,00 %
18.09.2019 00:02 24,0 C 15,2 C 60 % 85 % 1019,7 hPa 0,0 l/m 0,0 km/h (0 Bft) N 0 12,7 C 15,2 C 0,0 km/h (0 Bft) 0,00 %
18.09.2019 00:01 24,1 C 15,2 C 59 % 85 % 1019,7 hPa 0,0 l/m 0,0 km/h (0 Bft) N 0 12,7 C 15,2 C 0,0 km/h (0 Bft) 0,00 %
18.09.2019 00:00 24,2 C 15,2 C 59 % 85 % 1019,7 hPa 0,0 l/m 0,0 km/h (0 Bft) N 0 12,7 C 15,2 C 0,0 km/h (0 Bft) 0,00 %
_ Min-Zeit 07:27 07:12 07:39 02:52 00:00 - 00:00 - - 06:18 07:12 00:00 00:00
Minimum _ 23,2 C 10,3 C 54 % 76 % 1019,7 hPa - 0,0 km/h (0 Bft) - - 7,6 C 10,3 C 0,0 km/h (0 Bft) 0,00 %
_ Max-Zeit 00:00 00:00 06:19 00:00 07:37 00:00 02:05 - - 00:00 00:00 02:05 02:00
Maximum _ 24,2 C 15,2 C 64 % 85 % 1023,7 hPa 0,0 l/m 6,4 km/h
W-NW (2 Bft)
- - 12,7 C 15,2 C 9,7 km/h
W-SW (2 Bft)
100,00 %
Durchschnitt _ 23,6 C 12,6 C 62 % 82 % 1021,5 hPa #0,0 l/m 0,7 km/h (0 Bft) W - 9,5 C 12,6 C 1,9 km/h (1 Bft) 70,22 %